Time,TemperatureF,DewpointF,PressureIn,WindDirection,WindDirectionDegrees,WindSpeedMPH,WindSpeedGustMPH,Humidity,HourlyPrecipIn,Conditions,Clouds,dailyrainin,SoftwareType,DateUTC
2013-08-25 00:01:00,58.3,54.4,29.93,NW,321,0.1,1.2,87,0.00,RA,BKN,0.00,WeatherDisplay:10.37,2013-08-25 07:01:00,
2013-08-25 00:02:00,58.3,54.4,29.93,NW,321,0.1,1.2,87,0.00,RA,BKN,0.00,WeatherDisplay:10.37,2013-08-25 07:02:00,
2013-08-25 00:03:00,58.3,54.4,29.93,NW,322,1.0,3.5,87,0.00,RA,BKN,0.00,WeatherDisplay:10.37,2013-08-25 07:03:00,
2013-08-25 00:06:00,58.2,54.3,29.93,NW,322,0.0,0.0,87,0.00,RA,BKN,0.00,WeatherDisplay:10.37,2013-08-25 07:06:00,
2013-08-25 00:07:00,58.2,54.3,29.93,NW,322,0.0,0.0,87,0.00,RA,BKN,0.00,WeatherDisplay:10.37,2013-08-25 07:07:00,
2013-08-25 00:08:00,58.2,54.3,29.93,NW,322,0.0,0.0,87,0.00,RA,BKN,0.00,WeatherDisplay:10.37,2013-08-25 07:08:00,
2013-08-25 00:11:00,58.2,54.3,29.94,NW,322,0.0,0.0,87,0.00,CLR,BKN,0.00,WeatherDisplay:10.37,2013-08-25 07:11:00,
2013-08-25 00:12:00,58.2,54.3,29.94,NW,322,0.0,0.0,87,0.00,CLR,BKN,0.00,WeatherDisplay:10.37,2013-08-25 07:12:00,
2013-08-25 00:13:00,58.2,54.3,29.93,NW,322,0.0,0.0,87,0.00,CLR,BKN,0.00,WeatherDisplay:10.37,2013-08-25 07:13:00,
2013-08-25 00:16:00,58.1,54.2,29.93,NW,324,0.0,0.0,87,0.00,CLR,BKN,0.00,WeatherDisplay:10.37,2013-08-25 07:16:00,
2013-08-25 00:17:00,58.1,54.2,29.93,NW,325,0.0,0.0,87,0.00,CLR,BKN,0.00,WeatherDisplay:10.37,2013-08-25 07:17:00,
2013-08-25 00:18:00,58.1,54.2,29.93,NW,325,0.0,1.2,87,0.00,CLR,BKN,0.00,WeatherDisplay:10.37,2013-08-25 07:18:00,
2013-08-25 00:19:00,58.1,54.2,29.93,NW,325,0.0,0.0,87,0.00,CLR,BKN,0.00,WeatherDisplay:10.37,2013-08-25 07:19:00,
2013-08-25 00:21:00,58.1,54.2,29.93,NW,325,0.0,0.0,87,0.00,CLR,BKN,0.00,WeatherDisplay:10.37,2013-08-25 07:21:00,
2013-08-25 00:22:00,58.1,54.2,29.93,NW,325,0.0,0.0,87,0.00,CLR,BKN,0.00,WeatherDisplay:10.37,2013-08-25 07:22:00,
2013-08-25 00:24:00,58.0,54.2,29.93,NW,325,0.0,0.0,87,0.00,CLR,BKN,0.00,WeatherDisplay:10.37,2013-08-25 07:24:00,
2013-08-25 00:26:00,58.0,54.2,29.93,NW,325,0.0,2.3,87,0.00,CLR,BKN,0.00,WeatherDisplay:10.37,2013-08-25 07:26:00,
2013-08-25 00:27:00,58.0,54.2,29.93,NW,325,0.0,0.0,87,0.00,CLR,BKN,0.00,WeatherDisplay:10.37,2013-08-25 07:27:00,
2013-08-25 00:29:00,58.0,54.2,29.93,NNW,330,0.0,1.2,87,0.00,CLR,BKN,0.00,WeatherDisplay:10.37,2013-08-25 07:29:00,
2013-08-25 00:30:00,58.0,54.2,29.93,NNW,330,0.0,0.0,87,0.00,CLR,BKN,0.00,WeatherDisplay:10.37,2013-08-25 07:30:00,
2013-08-25 00:31:00,58.0,54.2,29.93,NNW,330,0.0,0.0,87,0.00,CLR,BKN,0.00,WeatherDisplay:10.37,2013-08-25 07:31:00,
2013-08-25 00:33:00,58.0,54.2,29.93,NNW,330,0.0,0.0,87,0.00,CLR,BKN,0.00,WeatherDisplay:10.37,2013-08-25 07:33:00,
2013-08-25 00:35:00,57.9,54.4,29.93,NNW,330,0.1,0.0,88,0.00,CLR,BKN,0.00,WeatherDisplay:10.37,2013-08-25 07:35:00,
2013-08-25 00:36:00,57.9,54.4,29.93,NNW,330,0.2,1.2,88,0.00,CLR,BKN,0.00,WeatherDisplay:10.37,2013-08-25 07:36:00,
2013-08-25 00:38:00,57.8,54.3,29.93,NNW,330,0.0,0.0,88,0.00,CLR,BKN,0.00,WeatherDisplay:10.37,2013-08-25 07:38:00,
2013-08-25 00:40:00,57.8,54.3,29.93,NNW,331,0.0,1.2,88,0.00,CLR,BKN,0.00,WeatherDisplay:10.37,2013-08-25 07:40:00,
2013-08-25 00:41:00,57.8,54.3,29.93,NNW,331,0.0,1.2,88,0.00,CLR,BKN,0.00,WeatherDisplay:10.37,2013-08-25 07:41:00,
2013-08-25 00:42:00,57.8,54.3,29.93,NNW,331,0.0,0.0,88,0.00,CLR,BKN,0.00,WeatherDisplay:10.37,2013-08-25 07:42:00,
2013-08-25 00:44:00,57.8,54.3,29.93,NNW,331,0.2,2.3,88,0.00,CLR,BKN,0.00,WeatherDisplay:10.37,2013-08-25 07:44:00,
2013-08-25 00:45:00,57.7,54.2,29.93,NNW,331,0.1,1.2,88,0.00,CLR,BKN,0.00,WeatherDisplay:10.37,2013-08-25 07:45:00,
2013-08-25 00:46:00,57.7,54.2,29.93,NNW,331,0.0,0.0,88,0.00,CLR,BKN,0.00,WeatherDisplay:10.37,2013-08-25 07:46:00,
2013-08-25 00:47:00,57.7,54.2,29.93,NNW,331,0.0,0.0,88,0.00,CLR,BKN,0.00,WeatherDisplay:10.37,2013-08-25 07:47:00,
2013-08-25 00:49:00,57.7,54.2,29.93,NNW,331,0.1,2.3,88,0.00,CLR,BKN,0.00,WeatherDisplay:10.37,2013-08-25 07:49:00,
2013-08-25 00:50:00,57.6,54.1,29.93,NNW,331,0.0,2.3,88,0.00,CLR,BKN,0.00,WeatherDisplay:10.37,2013-08-25 07:50:00,
2013-08-25 00:51:00,57.6,54.1,29.93,NNW,331,0.0,0.0,88,0.00,CLR,BKN,0.00,WeatherDisplay:10.37,2013-08-25 07:51:00,
2013-08-25 00:52:00,57.6,54.1,29.93,NNW,331,0.0,0.0,88,0.00,CLR,BKN,0.00,WeatherDisplay:10.37,2013-08-25 07:52:00,
2013-08-25 00:54:00,57.6,54.4,29.93,NNW,331,0.0,0.0,89,0.00,CLR,BKN,0.00,WeatherDisplay:10.37,2013-08-25 07:54:00,
2013-08-25 00:55:00,57.6,54.4,29.93,NNW,331,0.2,0.0,89,0.00,CLR,BKN,0.00,WeatherDisplay:10.37,2013-08-25 07:55:00,
2013-08-25 00:56:00,57.5,54.3,29.93,NNW,331,0.0,1.2,89,0.00,CLR,BKN,0.00,WeatherDisplay:10.37,2013-08-25 07:56:00,
2013-08-25 00:58:00,57.5,54.3,29.93,NNW,331,0.0,1.2,89,0.00,CLR,BKN,0.00,WeatherDisplay:10.37,2013-08-25 07:58:00,
2013-08-25 01:01:00,57.5,54.3,29.93,NNW,331,0.1,1.2,89,0.00,CLR,BKN,0.00,WeatherDisplay:10.37,2013-08-25 08:01:00,
2013-08-25 01:02:00,57.5,54.3,29.93,NNW,331,0.4,1.2,89,0.00,CLR,BKN,0.00,WeatherDisplay:10.37,2013-08-25 08:02:00,
2013-08-25 01:03:00,57.4,54.2,29.93,NNW,331,0.0,0.0,89,0.00,CLR,BKN,0.00,WeatherDisplay:10.37,2013-08-25 08:03:00,
2013-08-25 01:07:00,57.4,54.2,29.93,NNW,329,0.0,0.0,89,0.00,CLR,BKN,0.00,WeatherDisplay:10.37,2013-08-25 08:07:00,
2013-08-25 01:08:00,57.4,54.2,29.93,NNW,329,0.0,0.0,89,0.00,CLR,BKN,0.00,WeatherDisplay:10.37,2013-08-25 08:08:00,
2013-08-25 01:12:00,57.3,54.1,29.93,NNW,328,0.0,1.2,89,0.00,CLR,BKN,0.00,WeatherDisplay:10.37,2013-08-25 08:12:00,
2013-08-25 01:13:00,57.3,54.1,29.93,NNW,328,0.0,0.0,89,0.00,CLR,BKN,0.00,WeatherDisplay:10.37,2013-08-25 08:13:00,
2013-08-25 01:17:00,57.2,54.3,29.94,NNW,328,0.0,0.0,90,0.00,CLR,BKN,0.00,WeatherDisplay:10.37,2013-08-25 08:17:00,
2013-08-25 01:18:00,57.2,54.3,29.94,NNW,328,0.0,1.2,90,0.00,CLR,BKN,0.00,WeatherDisplay:10.37,2013-08-25 08:18:00,
2013-08-25 01:19:00,57.2,54.3,29.94,NNW,328,0.0,0.0,90,0.00,CLR,BKN,0.00,WeatherDisplay:10.37,2013-08-25 08:19:00,
2013-08-25 01:22:00,57.1,54.2,29.94,NNW,328,0.0,0.0,90,0.00,CLR,BKN,0.00,WeatherDisplay:10.37,2013-08-25 08:22:00,
2013-08-25 01:24:00,57.1,54.2,29.94,NNW,328,0.0,0.0,90,0.00,CLR,BKN,0.00,WeatherDisplay:10.37,2013-08-25 08:24:00,
2013-08-25 01:25:00,57.1,54.2,29.94,NNW,328,0.0,0.0,90,0.00,CLR,BKN,0.00,WeatherDisplay:10.37,2013-08-25 08:25:00,
2013-08-25 01:27:00,57.1,54.2,29.94,NNW,328,0.0,0.0,90,0.00,CLR,BKN,0.00,WeatherDisplay:10.37,2013-08-25 08:27:00,
2013-08-25 01:28:00,57.1,54.2,29.94,NNW,328,0.0,0.0,90,0.00,CLR,BKN,0.00,WeatherDisplay:10.37,2013-08-25 08:28:00,
2013-08-25 01:29:00,57.0,54.1,29.94,NNW,328,0.6,3.5,90,0.00,CLR,BKN,0.00,WeatherDisplay:10.37,2013-08-25 08:29:00,
2013-08-25 01:30:00,57.0,54.1,29.94,NNW,328,0.1,3.5,90,0.00,CLR,BKN,0.00,WeatherDisplay:10.37,2013-08-25 08:30:00,
2013-08-25 01:32:00,57.0,54.1,29.94,NNW,328,0.0,0.0,90,0.00,CLR,BKN,0.00,WeatherDisplay:10.37,2013-08-25 08:32:00,
2013-08-25 01:33:00,57.0,54.1,29.94,NNW,328,0.0,0.0,90,0.00,CLR,BKN,0.00,WeatherDisplay:10.37,2013-08-25 08:33:00,
2013-08-25 01:34:00,56.9,54.0,29.94,NNW,328,0.0,0.0,90,0.00,CLR,BKN,0.00,WeatherDisplay:10.37,2013-08-25 08:34:00,
2013-08-25 01:35:00,56.9,54.0,29.94,NNW,328,0.0,0.0,90,0.00,CLR,BKN,0.00,WeatherDisplay:10.37,2013-08-25 08:35:00,
2013-08-25 01:37:00,56.9,54.0,29.94,NNW,328,0.0,0.0,90,0.00,CLR,BKN,0.00,WeatherDisplay:10.37,2013-08-25 08:37:00,
2013-08-25 01:38:00,56.9,54.0,29.94,NNW,328,0.0,0.0,90,0.00,CLR,BKN,0.00,WeatherDisplay:10.37,2013-08-25 08:38:00,
2013-08-25 01:39:00,56.8,53.9,29.94,NNW,328,0.1,1.2,90,0.00,CLR,BKN,0.00,WeatherDisplay:10.37,2013-08-25 08:39:00,
2013-08-25 01:40:00,56.8,53.9,29.94,NNW,328,0.0,0.0,90,0.00,CLR,BKN,0.00,WeatherDisplay:10.37,2013-08-25 08:40:00,
2013-08-25 01:43:00,56.8,54.2,29.94,NNW,328,0.0,0.0,91,0.00,CLR,BKN,0.00,WeatherDisplay:10.37,2013-08-25 08:43:00,
2013-08-25 01:44:00,56.8,54.2,29.94,NNW,328,0.6,1.2,91,0.00,CLR,BKN,0.00,WeatherDisplay:10.37,2013-08-25 08:44:00,
2013-08-25 01:45:00,56.7,54.1,29.94,NNW,328,0.0,3.5,91,0.00,CLR,BKN,0.00,WeatherDisplay:10.37,2013-08-25 08:45:00,
2013-08-25 01:48:00,56.7,54.1,29.94,NNW,328,0.0,0.0,91,0.00,CLR,BKN,0.00,WeatherDisplay:10.37,2013-08-25 08:48:00,
2013-08-25 01:49:00,56.7,54.1,29.94,NNW,328,0.0,0.0,91,0.00,CLR,BKN,0.00,WeatherDisplay:10.37,2013-08-25 08:49:00,
2013-08-25 01:50:00,56.7,54.1,29.94,NNW,328,0.0,0.0,91,0.00,CLR,BKN,0.00,WeatherDisplay:10.37,2013-08-25 08:50:00,
2013-08-25 01:53:00,56.6,54.0,29.94,NNW,328,0.0,0.0,91,0.00,CLR,BKN,0.00,WeatherDisplay:10.37,2013-08-25 08:53:00,
2013-08-25 01:54:00,56.6,54.0,29.94,NNW,328,0.0,0.0,91,0.00,CLR,BKN,0.00,WeatherDisplay:10.37,2013-08-25 08:54:00,
2013-08-25 01:55:00,56.6,54.0,29.93,NNW,327,0.2,0.0,91,0.00,CLR,BKN,0.00,WeatherDisplay:10.37,2013-08-25 08:55:00,
2013-08-25 01:58:00,56.5,53.9,29.93,NNW,327,0.0,1.2,91,0.00,CLR,BKN,0.00,WeatherDisplay:10.37,2013-08-25 08:58:00,
2013-08-25 01:59:00,56.5,53.9,29.93,NNW,327,0.0,0.0,91,0.00,CLR,BKN,0.00,WeatherDisplay:10.37,2013-08-25 08:59:00,
2013-08-25 02:00:00,56.5,53.9,29.93,NNW,327,0.1,0.0,91,0.00,CLR,BKN,0.00,WeatherDisplay:10.37,2013-08-25 09:00:00,
2013-08-25 02:01:00,56.4,53.8,29.93,NE,50,1.1,3.5,91,0.00,CLR,BKN,0.00,WeatherDisplay:10.37,2013-08-25 09:01:00,
2013-08-25 02:03:00,56.4,53.8,29.93,NNE,24,0.0,0.0,91,0.00,CLR,BKN,0.00,WeatherDisplay:10.37,2013-08-25 09:03:00,
2013-08-25 02:04:00,56.4,53.8,29.93,NNE,24,0.0,0.0,91,0.00,CLR,BKN,0.00,WeatherDisplay:10.37,2013-08-25 09:04:00,
2013-08-25 02:05:00,56.4,53.8,29.93,NNE,22,0.0,0.0,91,0.00,CLR,BKN,0.00,WeatherDisplay:10.37,2013-08-25 09:05:00,
2013-08-25 02:06:00,56.4,53.8,29.93,NNE,21,0.2,1.2,91,0.00,CLR,BKN,0.00,WeatherDisplay:10.37,2013-08-25 09:06:00,
2013-08-25 02:08:00,56.4,53.8,29.93,NNE,21,0.0,0.0,91,0.00,CLR,BKN,0.00,WeatherDisplay:10.37,2013-08-25 09:08:00,
2013-08-25 02:09:00,56.3,54.0,29.93,East,82,0.5,3.5,92,0.00,CLR,BKN,0.00,WeatherDisplay:10.37,2013-08-25 09:09:00,
2013-08-25 02:10:00,56.4,54.1,29.93,ENE,77,0.0,3.5,92,0.00,CLR,BKN,0.00,WeatherDisplay:10.37,2013-08-25 09:10:00,
2013-08-25 02:11:00,56.3,54.0,29.93,ENE,76,0.0,0.0,92,0.00,CLR,BKN,0.00,WeatherDisplay:10.37,2013-08-25 09:11:00,
2013-08-25 02:14:00,56.3,54.0,29.93,NNE,24,0.0,0.0,92,0.00,CLR,BKN,0.00,WeatherDisplay:10.37,2013-08-25 09:14:00,
2013-08-25 02:15:00,56.3,53.7,29.93,NNE,24,0.0,0.0,91,0.00,CLR,BKN,0.00,WeatherDisplay:10.37,2013-08-25 09:15:00,
2013-08-25 02:16:00,56.3,54.0,29.93,NNE,24,0.2,1.2,92,0.00,CLR,BKN,0.00,WeatherDisplay:10.37,2013-08-25 09:16:00,
2013-08-25 02:19:00,56.3,54.0,29.93,NNE,24,0.3,1.0,92,0.00,CLR,BKN,0.00,WeatherDisplay:10.37,2013-08-25 09:19:00,
2013-08-25 02:21:00,56.3,54.0,29.93,NNE,24,0.0,1.0,92,0.00,CLR,BKN,0.00,WeatherDisplay:10.37,2013-08-25 09:21:00,
2013-08-25 02:22:00,56.3,54.0,29.93,NNE,24,0.0,1.2,92,0.00,CLR,BKN,0.00,WeatherDisplay:10.37,2013-08-25 09:22:00,
2013-08-25 02:24:00,56.2,53.6,29.93,NNE,24,0.0,0.0,91,0.00,CLR,BKN,0.00,WeatherDisplay:10.37,2013-08-25 09:24:00,
2013-08-25 02:26:00,56.2,53.9,29.93,NNE,24,0.0,0.0,92,0.00,CLR,BKN,0.00,WeatherDisplay:10.37,2013-08-25 09:26:00,
2013-08-25 02:27:00,56.2,53.9,29.93,NNE,13,0.7,2.3,92,0.00,CLR,BKN,0.00,WeatherDisplay:10.37,2013-08-25 09:27:00,
2013-08-25 02:29:00,56.2,53.6,29.93,NNE,13,0.0,1.2,91,0.00,CLR,BKN,0.00,WeatherDisplay:10.37,2013-08-25 09:29:00,
2013-08-25 02:30:00,56.2,53.6,29.93,NNE,13,0.0,0.0,91,0.00,CLR,BKN,0.00,WeatherDisplay:10.37,2013-08-25 09:30:00,
2013-08-25 02:31:00,56.2,53.9,29.93,NNE,13,0.0,0.0,92,0.00,CLR,BKN,0.00,WeatherDisplay:10.37,2013-08-25 09:31:00,
2013-08-25 02:32:00,56.2,53.9,29.93,West,268,0.0,0.0,92,0.00,CLR,BKN,0.00,WeatherDisplay:10.37,2013-08-25 09:32:00,
2013-08-25 02:34:00,56.1,53.5,29.93,WNW,295,0.0,1.2,91,0.00,CLR,BKN,0.00,WeatherDisplay:10.37,2013-08-25 09:34:00,
2013-08-25 02:35:00,56.1,53.8,29.93,WNW,300,0.1,1.2,92,0.00,CLR,BKN,0.00,WeatherDisplay:10.37,2013-08-25 09:35:00,
2013-08-25 02:36:00,56.1,53.5,29.93,WNW,300,0.0,1.2,91,0.00,CLR,BKN,0.00,WeatherDisplay:10.37,2013-08-25 09:36:00,
2013-08-25 02:37:00,56.1,53.5,29.93,WNW,300,0.0,0.0,91,0.00,CLR,BKN,0.00,WeatherDisplay:10.37,2013-08-25 09:37:00,
2013-08-25 02:38:00,56.1,53.5,29.93,WNW,300,0.0,0.0,91,0.00,CLR,BKN,0.00,WeatherDisplay:10.37,2013-08-25 09:38:00,
2013-08-25 02:39:00,56.1,53.5,29.93,NW,309,0.2,0.0,91,0.00,CLR,BKN,0.00,WeatherDisplay:10.37,2013-08-25 09:39:00,
2013-08-25 02:40:00,56.1,53.8,29.93,NW,309,0.0,1.2,92,0.00,CLR,BKN,0.00,WeatherDisplay:10.37,2013-08-25 09:40:00,
2013-08-25 02:42:00,56.1,53.5,29.93,NW,309,0.0,0.0,91,0.00,CLR,BKN,0.00,WeatherDisplay:10.37,2013-08-25 09:42:00,
2013-08-25 02:43:00,56.1,53.5,29.93,NW,309,0.0,0.0,91,0.00,CLR,BKN,0.00,WeatherDisplay:10.37,2013-08-25 09:43:00,
2013-08-25 02:45:00,56.1,53.8,29.93,NW,321,0.0,1.2,92,0.00,CLR,BKN,0.00,WeatherDisplay:10.37,2013-08-25 09:45:00,
2013-08-25 02:46:00,56.1,53.8,29.93,NW,322,0.2,1.2,92,0.00,CLR,BKN,0.00,WeatherDisplay:10.37,2013-08-25 09:46:00,
2013-08-25 02:47:00,56.0,53.7,29.93,NW,322,0.3,2.3,92,0.00,CLR,BKN,0.00,WeatherDisplay:10.37,2013-08-25 09:47:00,
2013-08-25 02:48:00,56.1,53.8,29.93,NW,322,0.0,2.3,92,0.00,CLR,BKN,0.00,WeatherDisplay:10.37,2013-08-25 09:48:00,
2013-08-25 02:50:00,56.0,53.7,29.93,NNW,336,0.2,2.3,92,0.00,CLR,BKN,0.00,WeatherDisplay:10.37,2013-08-25 09:50:00,
2013-08-25 02:52:00,56.0,53.7,29.93,NNW,336,0.0,1.2,92,0.00,CLR,BKN,0.00,WeatherDisplay:10.37,2013-08-25 09:52:00,
2013-08-25 02:53:00,56.0,53.7,29.93,NNW,336,0.0,1.2,92,0.00,CLR,BKN,0.00,WeatherDisplay:10.37,2013-08-25 09:53:00,
2013-08-25 02:55:00,56.0,53.7,29.93,NNW,336,0.2,1.2,92,0.00,CLR,BKN,0.00,WeatherDisplay:10.37,2013-08-25 09:55:00,
2013-08-25 02:57:00,56.0,53.7,29.93,NNW,336,0.0,0.0,92,0.00,CLR,BKN,0.00,WeatherDisplay:10.37,2013-08-25 09:57:00,
2013-08-25 02:58:00,56.0,53.7,29.93,NNW,336,0.0,0.0,92,0.00,CLR,BKN,0.00,WeatherDisplay:10.37,2013-08-25 09:58:00,
2013-08-25 03:00:00,56.0,53.7,29.93,NNW,337,0.0,0.0,92,0.00,CLR,BKN,0.00,WeatherDisplay:10.37,2013-08-25 10:00:00,
2013-08-25 03:03:00,55.9,53.6,29.93,NNW,337,0.0,0.0,92,0.00,CLR,BKN,0.00,WeatherDisplay:10.37,2013-08-25 10:03:00,
2013-08-25 03:04:00,55.9,53.6,29.93,NNW,337,0.0,0.0,92,0.00,CLR,BKN,0.00,WeatherDisplay:10.37,2013-08-25 10:04:00,
2013-08-25 03:05:00,55.9,53.6,29.93,NNW,337,0.0,0.0,92,0.00,CLR,BKN,0.00,WeatherDisplay:10.37,2013-08-25 10:05:00,
2013-08-25 03:08:00,55.9,53.6,29.93,NNW,337,0.0,0.0,92,0.00,CLR,BKN,0.00,WeatherDisplay:10.37,2013-08-25 10:08:00,
2013-08-25 03:09:00,55.8,53.5,29.93,NNW,337,0.0,0.0,92,0.00,CLR,BKN,0.00,WeatherDisplay:10.37,2013-08-25 10:09:00,
2013-08-25 03:10:00,55.8,53.5,29.93,NNW,337,0.3,1.2,92,0.00,CLR,BKN,0.00,WeatherDisplay:10.37,2013-08-25 10:10:00,
2013-08-25 03:13:00,55.8,53.5,29.93,NNE,19,0.1,3.5,92,0.00,CLR,BKN,0.00,WeatherDisplay:10.37,2013-08-25 10:13:00,
2013-08-25 03:14:00,55.8,53.5,29.93,NNE,19,0.0,3.5,92,0.00,CLR,BKN,0.00,WeatherDisplay:10.37,2013-08-25 10:14:00,
2013-08-25 03:16:00,55.7,53.4,29.93,NNE,19,0.0,0.0,92,0.00,CLR,BKN,0.00,WeatherDisplay:10.37,2013-08-25 10:16:00,
2013-08-25 03:18:00,55.7,53.4,29.93,North,355,0.0,2.3,92,0.00,CLR,BKN,0.00,WeatherDisplay:10.37,2013-08-25 10:18:00,
2013-08-25 03:19:00,55.8,53.5,29.93,North,355,0.0,1.2,92,0.00,CLR,BKN,0.00,WeatherDisplay:10.37,2013-08-25 10:19:00,
2013-08-25 03:22:00,55.8,53.2,29.93,West,281,0.0,0.0,91,0.00,CLR,BKN,0.00,WeatherDisplay:10.37,2013-08-25 10:22:00,
2013-08-25 03:23:00,55.8,53.2,29.93,NE,44,0.5,2.0,91,0.00,CLR,BKN,0.00,WeatherDisplay:10.37,2013-08-25 10:23:00,
2013-08-25 03:24:00,55.8,53.2,29.93,NE,44,0.4,2.3,91,0.00,CLR,BKN,0.00,WeatherDisplay:10.37,2013-08-25 10:24:00,
2013-08-25 03:25:00,55.8,53.2,29.93,NE,44,0.0,0.0,91,0.00,CLR,BKN,0.00,WeatherDisplay:10.37,2013-08-25 10:25:00,
2013-08-25 03:28:00,55.9,53.3,29.93,NE,42,0.0,1.2,91,0.00,CLR,BKN,0.00,WeatherDisplay:10.37,2013-08-25 10:28:00,
2013-08-25 03:29:00,55.9,53.3,29.93,North,350,0.0,1.2,91,0.00,CLR,BKN,0.00,WeatherDisplay:10.37,2013-08-25 10:29:00,
2013-08-25 03:30:00,55.9,53.3,29.93,North,350,0.0,1.2,91,0.00,CLR,BKN,0.00,WeatherDisplay:10.37,2013-08-25 10:30:00,
2013-08-25 03:33:00,55.9,53.3,29.93,North,351,0.0,1.2,91,0.00,CLR,BKN,0.00,WeatherDisplay:10.37,2013-08-25 10:33:00,
2013-08-25 03:34:00,55.9,53.3,29.93,North,351,0.1,0.0,91,0.00,CLR,BKN,0.00,WeatherDisplay:10.37,2013-08-25 10:34:00,
2013-08-25 03:35:00,55.9,53.3,29.93,North,351,0.0,1.2,91,0.00,CLR,BKN,0.00,WeatherDisplay:10.37,2013-08-25 10:35:00,
2013-08-25 03:38:00,55.9,53.3,29.93,North,360,0.6,0.0,91,0.00,CLR,BKN,0.00,WeatherDisplay:10.37,2013-08-25 10:38:00,
2013-08-25 03:39:00,55.9,53.3,29.93,North,360,0.3,3.5,91,0.00,CLR,BKN,0.00,WeatherDisplay:10.37,2013-08-25 10:39:00,
2013-08-25 03:40:00,55.9,53.3,29.93,North,360,0.0,1.2,91,0.00,CLR,BKN,0.00,WeatherDisplay:10.37,2013-08-25 10:40:00,
2013-08-25 03:44:00,55.8,53.5,29.93,North,360,0.1,1.2,92,0.00,CLR,BKN,0.00,WeatherDisplay:10.37,2013-08-25 10:44:00,
2013-08-25 03:45:00,55.8,53.5,29.93,North,360,0.0,1.2,92,0.00,CLR,BKN,0.00,WeatherDisplay:10.37,2013-08-25 10:45:00,
2013-08-25 03:46:00,55.8,53.5,29.93,North,360,0.0,0.0,92,0.00,CLR,BKN,0.00,WeatherDisplay:10.37,2013-08-25 10:46:00,
2013-08-25 03:49:00,55.7,53.4,29.93,North,360,0.0,2.3,92,0.00,CLR,BKN,0.00,WeatherDisplay:10.37,2013-08-25 10:49:00,
2013-08-25 03:50:00,55.7,53.4,29.93,North,360,0.1,1.2,92,0.00,CLR,BKN,0.00,WeatherDisplay:10.37,2013-08-25 10:50:00,
2013-08-25 03:52:00,55.7,53.4,29.93,North,360,0.0,0.0,92,0.00,CLR,BKN,0.00,WeatherDisplay:10.37,2013-08-25 10:52:00,
2013-08-25 03:54:00,55.7,53.4,29.93,North,360,0.1,0.0,92,0.00,CLR,BKN,0.00,WeatherDisplay:10.37,2013-08-25 10:54:00,
2013-08-25 03:55:00,55.6,53.3,29.93,North,360,0.0,0.0,92,0.00,CLR,BKN,0.00,WeatherDisplay:10.37,2013-08-25 10:55:00,
2013-08-25 03:57:00,55.6,53.3,29.93,North,360,0.0,0.0,92,0.00,CLR,BKN,0.00,WeatherDisplay:10.37,2013-08-25 10:57:00,
2013-08-25 03:59:00,55.5,53.2,29.93,North,360,0.0,0.0,92,0.00,CLR,BKN,0.00,WeatherDisplay:10.37,2013-08-25 10:59:00,
2013-08-25 04:00:00,55.5,53.2,29.93,North,360,0.0,0.0,92,0.00,CLR,BKN,0.00,WeatherDisplay:10.37,2013-08-25 11:00:00,
2013-08-25 04:01:00,55.5,53.2,29.93,North,360,0.0,0.0,92,0.00,CLR,BKN,0.00,WeatherDisplay:10.37,2013-08-25 11:01:00,
2013-08-25 04:02:00,55.5,53.2,29.93,North,360,0.1,0.0,92,0.00,CLR,BKN,0.00,WeatherDisplay:10.37,2013-08-25 11:02:00,
2013-08-25 04:04:00,55.4,53.4,29.93,North,350,0.0,0.0,93,0.00,CLR,BKN,0.00,WeatherDisplay:10.37,2013-08-25 11:04:00,
2013-08-25 04:05:00,55.4,53.4,29.93,North,350,0.4,0.0,93,0.00,CLR,BKN,0.00,WeatherDisplay:10.37,2013-08-25 11:05:00,
2013-08-25 04:06:00,55.4,53.4,29.93,North,350,0.3,2.3,93,0.00,CLR,BKN,0.00,WeatherDisplay:10.37,2013-08-25 11:06:00,
2013-08-25 04:07:00,55.4,53.4,29.93,North,350,0.0,0.0,93,0.00,CLR,BKN,0.00,WeatherDisplay:10.37,2013-08-25 11:07:00,
2013-08-25 04:09:00,55.4,53.4,29.93,North,350,0.0,1.2,93,0.00,CLR,BKN,0.00,WeatherDisplay:10.37,2013-08-25 11:09:00,
2013-08-25 04:10:00,55.3,53.6,29.93,NNW,344,1.1,3.0,94,0.00,CLR,BKN,0.00,WeatherDisplay:10.37,2013-08-25 11:10:00,
2013-08-25 04:11:00,55.3,53.6,29.93,NNW,344,0.9,3.5,94,0.00,CLR,BKN,0.00,WeatherDisplay:10.37,2013-08-25 11:11:00,
2013-08-25 04:13:00,55.3,53.6,29.93,NNW,344,0.0,0.0,94,0.00,CLR,BKN,0.00,WeatherDisplay:10.37,2013-08-25 11:13:00,
2013-08-25 04:15:00,55.3,53.6,29.93,NNW,344,0.1,1.2,94,0.00,CLR,BKN,0.00,WeatherDisplay:10.37,2013-08-25 11:15:00,
2013-08-25 04:16:00,55.3,53.6,29.93,NNW,344,0.0,0.0,94,0.00,CLR,BKN,0.00,WeatherDisplay:10.37,2013-08-25 11:16:00,
2013-08-25 04:18:00,55.3,53.6,29.93,NNW,344,0.0,0.0,94,0.00,CLR,BKN,0.00,WeatherDisplay:10.37,2013-08-25 11:18:00,
2013-08-25 04:20:00,55.3,53.6,29.92,NNW,339,1.1,3.5,94,0.00,CLR,BKN,0.00,WeatherDisplay:10.37,2013-08-25 11:20:00,
2013-08-25 04:21:00,55.3,53.6,29.93,NNW,339,0.0,0.0,94,0.00,CLR,BKN,0.00,WeatherDisplay:10.37,2013-08-25 11:21:00,
2013-08-25 04:22:00,55.3,53.6,29.93,NNW,339,0.0,0.0,94,0.00,CLR,BKN,0.00,WeatherDisplay:10.37,2013-08-25 11:22:00,
2013-08-25 04:23:00,55.3,53.6,29.93,NNW,334,0.0,0.0,94,0.00,CLR,BKN,0.00,WeatherDisplay:10.37,2013-08-25 11:23:00,
2013-08-25 04:25:00,55.2,53.5,29.93,NNW,334,0.0,1.2,94,0.00,CLR,BKN,0.00,WeatherDisplay:10.37,2013-08-25 11:25:00,
2013-08-25 04:26:00,55.2,53.5,29.93,NNW,334,0.0,1.2,94,0.00,CLR,BKN,0.00,WeatherDisplay:10.37,2013-08-25 11:26:00,
2013-08-25 04:27:00,55.2,53.5,29.93,NNW,334,0.0,0.0,94,0.00,CLR,BKN,0.00,WeatherDisplay:10.37,2013-08-25 11:27:00,
2013-08-25 04:29:00,55.3,53.6,29.93,NNW,334,0.0,0.0,94,0.00,CLR,BKN,0.00,WeatherDisplay:10.37,2013-08-25 11:29:00,
2013-08-25 04:30:00,55.3,53.6,29.93,NNW,334,0.0,0.0,94,0.00,CLR,BKN,0.00,WeatherDisplay:10.37,2013-08-25 11:30:00,
2013-08-25 04:31:00,55.3,53.6,29.93,NNW,334,2.2,4.6,94,0.00,CLR,BKN,0.00,WeatherDisplay:10.37,2013-08-25 11:31:00,
2013-08-25 04:32:00,55.3,53.6,29.93,NNW,334,0.8,3.5,94,0.00,CLR,BKN,0.00,WeatherDisplay:10.37,2013-08-25 11:32:00,
2013-08-25 04:34:00,55.3,53.6,29.93,NNW,334,0.0,0.0,94,0.00,CLR,BKN,0.00,WeatherDisplay:10.37,2013-08-25 11:34:00,
2013-08-25 04:35:00,55.3,53.6,29.93,NNW,334,0.1,0.0,94,0.00,CLR,BKN,0.00,WeatherDisplay:10.37,2013-08-25 11:35:00,
2013-08-25 04:36:00,55.3,53.6,29.93,NNW,334,0.0,1.2,94,0.00,CLR,BKN,0.00,WeatherDisplay:10.37,2013-08-25 11:36:00,
2013-08-25 04:37:00,55.2,53.5,29.93,NNW,334,0.5,2.3,94,0.00,CLR,BKN,0.00,WeatherDisplay:10.37,2013-08-25 11:37:00,
2013-08-25 04:40:00,55.3,53.6,29.92,NNW,344,0.3,2.0,94,0.00,CLR,BKN,0.00,WeatherDisplay:10.37,2013-08-25 11:40:00,
2013-08-25 04:42:00,55.2,53.5,29.92,North,355,0.0,0.0,94,0.00,CLR,BKN,0.00,WeatherDisplay:10.37,2013-08-25 11:42:00,
2013-08-25 04:45:00,55.2,53.5,29.93,North,360,0.0,1.2,94,0.00,CLR,BKN,0.00,WeatherDisplay:10.37,2013-08-25 11:45:00,
2013-08-25 04:47:00,55.2,53.5,29.92,NE,46,0.9,2.3,94,0.00,CLR,BKN,0.00,WeatherDisplay:10.37,2013-08-25 11:47:00,
2013-08-25 04:48:00,55.2,53.5,29.93,NE,46,0.8,4.6,94,0.00,CLR,BKN,0.00,WeatherDisplay:10.37,2013-08-25 11:48:00,
2013-08-25 04:50:00,55.2,53.5,29.92,NNE,14,0.4,2.3,94,0.00,CLR,BKN,0.00,WeatherDisplay:10.37,2013-08-25 11:50:00,
2013-08-25 04:52:00,55.1,53.4,29.92,NNE,14,0.7,2.0,94,0.00,CLR,BKN,0.00,WeatherDisplay:10.37,2013-08-25 11:52:00,
2013-08-25 04:53:00,55.1,53.4,29.93,NNE,14,0.7,3.5,94,0.00,CLR,BKN,0.00,WeatherDisplay:10.37,2013-08-25 11:53:00,
2013-08-25 04:55:00,55.1,53.4,29.92,NNE,14,0.0,0.0,94,0.00,CLR,BKN,0.00,WeatherDisplay:10.37,2013-08-25 11:55:00,
2013-08-25 04:56:00,55.1,53.4,29.92,NNE,14,0.0,0.0,94,0.00,CLR,BKN,0.00,WeatherDisplay:10.37,2013-08-25 11:56:00,
2013-08-25 04:58:00,55.0,53.3,29.92,NNE,14,0.0,1.2,94,0.00,CLR,BKN,0.00,WeatherDisplay:10.37,2013-08-25 11:58:00,
2013-08-25 04:59:00,55.0,53.3,29.92,NNE,14,0.0,1.0,94,0.00,CLR,BKN,0.00,WeatherDisplay:10.37,2013-08-25 11:59:00,
2013-08-25 05:00:00,55.0,53.3,29.93,NNE,14,0.2,1.2,94,0.00,CLR,BKN,0.00,WeatherDisplay:10.37,2013-08-25 12:00:00,
2013-08-25 05:01:00,54.9,53.2,29.92,NNE,14,0.0,0.0,94,0.00,CLR,BKN,0.00,WeatherDisplay:10.37,2013-08-25 12:01:00,
2013-08-25 05:03:00,54.9,53.2,29.92,NNE,14,0.0,0.0,94,0.00,CLR,BKN,0.00,WeatherDisplay:10.37,2013-08-25 12:03:00,
2013-08-25 05:04:00,54.8,53.1,29.92,NNE,14,0.0,0.0,94,0.00,CLR,BKN,0.00,WeatherDisplay:10.37,2013-08-25 12:04:00,
2013-08-25 05:05:00,54.9,53.2,29.92,NNE,14,0.0,1.0,94,0.00,CLR,BKN,0.00,WeatherDisplay:10.37,2013-08-25 12:05:00,
2013-08-25 05:06:00,54.8,53.1,29.92,NNE,14,0.0,0.0,94,0.00,CLR,BKN,0.00,WeatherDisplay:10.37,2013-08-25 12:06:00,
2013-08-25 05:08:00,54.7,53.0,29.92,NNE,13,0.0,1.2,94,0.00,CLR,BKN,0.00,WeatherDisplay:10.37,2013-08-25 12:08:00,
2013-08-25 05:09:00,54.7,53.0,29.92,NNE,13,0.0,0.0,94,0.00,CLR,BKN,0.00,WeatherDisplay:10.37,2013-08-25 12:09:00,
2013-08-25 05:10:00,54.7,53.0,29.92,NNE,13,0.0,0.0,94,0.00,CLR,BKN,0.00,WeatherDisplay:10.37,2013-08-25 12:10:00,
2013-08-25 05:11:00,54.6,52.9,29.92,NNE,13,0.0,0.0,94,0.00,CLR,BKN,0.00,WeatherDisplay:10.37,2013-08-25 12:11:00,
2013-08-25 05:13:00,54.6,52.9,29.92,NNE,13,0.2,2.3,94,0.00,CLR,BKN,0.00,WeatherDisplay:10.37,2013-08-25 12:13:00,
2013-08-25 05:14:00,54.6,52.9,29.92,NNE,13,0.0,0.0,94,0.00,CLR,BKN,0.00,WeatherDisplay:10.37,2013-08-25 12:14:00,
2013-08-25 05:15:00,54.5,52.8,29.92,NNE,13,0.0,0.0,94,0.00,CLR,BKN,0.00,WeatherDisplay:10.37,2013-08-25 12:15:00,
2013-08-25 05:16:00,54.5,52.8,29.92,NNE,12,0.3,2.3,94,0.00,CLR,BKN,0.00,WeatherDisplay:10.37,2013-08-25 12:16:00,
2013-08-25 05:18:00,54.4,52.7,29.92,North,5,0.9,2.0,94,0.00,CLR,BKN,0.00,WeatherDisplay:10.37,2013-08-25 12:18:00,
2013-08-25 05:19:00,54.4,53.0,29.92,North,5,0.0,2.3,95,0.00,CLR,BKN,0.00,WeatherDisplay:10.37,2013-08-25 12:19:00,
2013-08-25 05:20:00,54.4,53.0,29.92,North,5,0.0,1.2,95,0.00,CLR,BKN,0.00,WeatherDisplay:10.37,2013-08-25 12:20:00,
2013-08-25 05:21:00,54.4,53.0,29.92,North,5,0.0,0.0,95,0.00,CLR,BKN,0.00,WeatherDisplay:10.37,2013-08-25 12:21:00,
2013-08-25 05:23:00,54.3,52.9,29.92,North,5,0.0,0.0,95,0.00,CLR,BKN,0.00,WeatherDisplay:10.37,2013-08-25 12:23:00,
2013-08-25 05:24:00,54.3,52.9,29.92,NNW,345,0.5,0.0,95,0.00,CLR,BKN,0.00,WeatherDisplay:10.37,2013-08-25 12:24:00,
2013-08-25 05:25:00,54.3,52.9,29.92,NNW,345,0.0,3.5,95,0.00,CLR,BKN,0.00,WeatherDisplay:10.37,2013-08-25 12:25:00,
2013-08-25 05:26:00,54.3,52.9,29.92,NNW,345,0.0,0.0,95,0.00,CLR,BKN,0.00,WeatherDisplay:10.37,2013-08-25 12:26:00,
2013-08-25 05:27:00,54.2,52.8,29.92,NNW,345,0.0,0.0,95,0.00,CLR,BKN,0.00,WeatherDisplay:10.37,2013-08-25 12:27:00,
2013-08-25 05:29:00,54.2,52.8,29.92,NNW,345,0.0,1.2,95,0.00,CLR,BKN,0.00,WeatherDisplay:10.37,2013-08-25 12:29:00,
2013-08-25 05:31:00,54.2,52.8,29.92,NNW,345,0.0,0.0,95,0.00,CLR,BKN,0.00,WeatherDisplay:10.37,2013-08-25 12:31:00,
2013-08-25 05:32:00,54.2,52.8,29.92,NNW,345,0.0,0.0,95,0.00,CLR,BKN,0.00,WeatherDisplay:10.37,2013-08-25 12:32:00,
2013-08-25 05:34:00,54.2,52.8,29.92,NNW,336,0.0,0.0,95,0.00,CLR,BKN,0.00,WeatherDisplay:10.37,2013-08-25 12:34:00,
2013-08-25 05:36:00,54.2,52.8,29.93,NNW,336,0.0,0.0,95,0.00,CLR,BKN,0.00,WeatherDisplay:10.37,2013-08-25 12:36:00,
2013-08-25 05:37:00,54.2,52.8,29.93,NNW,336,0.0,0.0,95,0.00,CLR,BKN,0.00,WeatherDisplay:10.37,2013-08-25 12:37:00,
2013-08-25 05:40:00,54.1,52.7,29.92,NNW,336,0.0,0.0,95,0.00,CLR,BKN,0.00,WeatherDisplay:10.37,2013-08-25 12:40:00,
2013-08-25 05:41:00,54.1,52.7,29.92,NNW,336,0.0,0.0,95,0.00,CLR,BKN,0.00,WeatherDisplay:10.37,2013-08-25 12:41:00,
2013-08-25 05:42:00,54.1,52.7,29.92,NNW,336,0.0,0.0,95,0.00,CLR,BKN,0.00,WeatherDisplay:10.37,2013-08-25 12:42:00,
2013-08-25 05:43:00,54.1,52.7,29.92,NNW,336,0.0,0.0,95,0.00,CLR,BKN,0.00,WeatherDisplay:10.37,2013-08-25 12:43:00,
2013-08-25 05:45:00,54.1,52.7,29.92,NNW,336,0.0,0.0,95,0.00,CLR,BKN,0.00,WeatherDisplay:10.37,2013-08-25 12:45:00,
2013-08-25 05:46:00,54.0,52.6,29.92,NNW,336,0.0,0.0,95,0.00,CLR,BKN,0.00,WeatherDisplay:10.37,2013-08-25 12:46:00,
2013-08-25 05:47:00,54.0,52.6,29.92,NW,317,0.1,1.2,95,0.00,CLR,BKN,0.00,WeatherDisplay:10.37,2013-08-25 12:47:00,
2013-08-25 05:48:00,54.0,52.6,29.92,NW,317,0.1,1.2,95,0.00,CLR,BKN,0.00,WeatherDisplay:10.37,2013-08-25 12:48:00,
2013-08-25 05:52:00,54.0,52.6,29.92,NW,317,0.0,0.0,95,0.00,CLR,BKN,0.00,WeatherDisplay:10.37,2013-08-25 12:52:00,
2013-08-25 05:53:00,54.0,52.6,29.92,NW,317,0.4,0.0,95,0.00,CLR,BKN,0.00,WeatherDisplay:10.37,2013-08-25 12:53:00,
2013-08-25 05:54:00,54.0,52.6,29.92,NW,317,0.1,1.2,95,0.00,CLR,BKN,0.00,WeatherDisplay:10.37,2013-08-25 12:54:00,
2013-08-25 05:57:00,54.0,52.6,29.92,NW,317,0.0,1.2,95,0.00,CLR,BKN,0.00,WeatherDisplay:10.37,2013-08-25 12:57:00,
2013-08-25 05:59:00,54.0,52.6,29.92,NW,317,0.1,2.0,95,0.00,CLR,BKN,0.00,WeatherDisplay:10.37,2013-08-25 12:59:00,
2013-08-25 06:00:00,54.0,52.6,29.92,North,9,0.3,2.3,95,0.00,CLR,BKN,0.00,WeatherDisplay:10.37,2013-08-25 13:00:00,
2013-08-25 06:02:00,54.1,52.7,29.92,North,355,0.1,1.2,95,0.00,CLR,BKN,0.00,WeatherDisplay:10.37,2013-08-25 13:02:00,
2013-08-25 06:03:00,54.1,52.7,29.92,North,355,0.0,0.0,95,0.00,CLR,BKN,0.00,WeatherDisplay:10.37,2013-08-25 13:03:00,
2013-08-25 06:04:00,54.1,52.7,29.92,NE,41,0.0,2.0,95,0.00,CLR,BKN,0.00,WeatherDisplay:10.37,2013-08-25 13:04:00,
2013-08-25 06:06:00,54.1,52.7,29.92,NNE,17,0.2,1.2,95,0.00,CLR,BKN,0.00,WeatherDisplay:10.37,2013-08-25 13:06:00,
2013-08-25 06:07:00,54.2,52.8,29.93,NE,40,1.6,3.5,95,0.00,CLR,BKN,0.00,WeatherDisplay:10.37,2013-08-25 13:07:00,
2013-08-25 06:08:00,54.2,52.8,29.93,NE,40,0.1,3.5,95,0.00,CLR,BKN,0.00,WeatherDisplay:10.37,2013-08-25 13:08:00,
2013-08-25 06:09:00,54.2,52.8,29.93,NE,39,0.0,1.2,95,0.00,CLR,BKN,0.00,WeatherDisplay:10.37,2013-08-25 13:09:00,
2013-08-25 06:11:00,54.2,52.8,29.93,NNE,18,0.3,2.3,95,0.00,CLR,BKN,0.00,WeatherDisplay:10.37,2013-08-25 13:11:00,
2013-08-25 06:13:00,54.2,52.8,29.93,NNE,18,0.3,2.3,95,0.00,CLR,BKN,0.00,WeatherDisplay:10.37,2013-08-25 13:13:00,
2013-08-25 06:14:00,54.2,52.8,29.93,NNE,18,0.0,0.0,95,0.00,CLR,BKN,0.00,WeatherDisplay:10.37,2013-08-25 13:14:00,
2013-08-25 06:15:00,54.2,52.8,29.92,NNE,18,0.0,0.0,95,0.00,CLR,BKN,0.00,WeatherDisplay:10.37,2013-08-25 13:15:00,
2013-08-25 06:16:00,54.2,52.8,29.92,NNE,18,0.0,1.2,95,0.00,CLR,BKN,0.00,WeatherDisplay:10.37,2013-08-25 13:16:00,
2013-08-25 06:18:00,54.2,52.8,29.92,NNE,18,0.0,0.0,95,0.00,CLR,BKN,0.00,WeatherDisplay:10.37,2013-08-25 13:18:00,
2013-08-25 06:19:00,54.2,52.8,29.93,NNE,18,0.0,0.0,95,0.00,CLR,BKN,0.00,WeatherDisplay:10.37,2013-08-25 13:19:00,
2013-08-25 06:20:00,54.1,52.7,29.93,NNE,18,0.2,0.0,95,0.00,CLR,BKN,0.00,WeatherDisplay:10.37,2013-08-25 13:20:00,
2013-08-25 06:22:00,54.1,52.7,29.93,NNE,18,0.0,0.0,95,0.00,CLR,BKN,0.00,WeatherDisplay:10.37,2013-08-25 13:22:00,
2013-08-25 06:23:00,54.1,52.7,29.93,NNE,18,0.0,0.0,95,0.00,CLR,BKN,0.00,WeatherDisplay:10.37,2013-08-25 13:23:00,
2013-08-25 06:24:00,54.1,52.7,29.92,NNE,18,0.0,0.0,95,0.00,CLR,BKN,0.00,WeatherDisplay:10.37,2013-08-25 13:24:00,
2013-08-25 06:26:00,54.0,52.6,29.93,NNE,18,0.0,0.0,95,0.00,CLR,BKN,0.00,WeatherDisplay:10.37,2013-08-25 13:26:00,
2013-08-25 06:27:00,54.0,52.6,29.92,NNE,18,0.0,0.0,95,0.00,CLR,BKN,0.00,WeatherDisplay:10.37,2013-08-25 13:27:00,
2013-08-25 06:28:00,54.0,52.6,29.92,NNE,18,0.0,1.2,95,0.00,CLR,BKN,0.00,WeatherDisplay:10.37,2013-08-25 13:28:00,
2013-08-25 06:29:00,54.0,52.6,29.92,NNE,18,0.0,0.0,95,0.00,CLR,BKN,0.00,WeatherDisplay:10.37,2013-08-25 13:29:00,
2013-08-25 06:30:00,54.0,52.6,29.92,NNE,18,0.0,0.0,95,0.00,CLR,BKN,0.00,WeatherDisplay:10.37,2013-08-25 13:30:00,
2013-08-25 06:31:00,54.0,52.6,29.93,NNE,18,0.0,0.0,95,0.00,CLR,BKN,0.00,WeatherDisplay:10.37,2013-08-25 13:31:00,
2013-08-25 06:32:00,53.9,52.5,29.92,NNE,18,0.2,0.0,95,0.00,CLR,BKN,0.00,WeatherDisplay:10.37,2013-08-25 13:32:00,
2013-08-25 06:34:00,53.9,52.5,29.93,NNE,18,0.0,1.2,95,0.00,CLR,BKN,0.00,WeatherDisplay:10.37,2013-08-25 13:34:00,
2013-08-25 06:35:00,53.9,52.5,29.93,NNE,18,0.4,2.3,95,0.00,CLR,BKN,0.00,WeatherDisplay:10.37,2013-08-25 13:35:00,
2013-08-25 06:37:00,53.9,52.8,29.93,NNE,18,0.3,2.3,96,0.00,CLR,BKN,0.00,WeatherDisplay:10.37,2013-08-25 13:37:00,
2013-08-25 06:39:00,53.9,52.8,29.93,NNE,18,0.5,2.3,96,0.00,CLR,BKN,0.00,WeatherDisplay:10.37,2013-08-25 13:39:00,
2013-08-25 06:40:00,53.9,52.5,29.93,NNE,18,0.0,0.0,95,0.00,CLR,BKN,0.00,WeatherDisplay:10.37,2013-08-25 13:40:00,
2013-08-25 06:42:00,54.0,52.9,29.93,North,5,0.4,2.3,96,0.00,CLR,BKN,0.00,WeatherDisplay:10.37,2013-08-25 13:42:00,
2013-08-25 06:44:00,54.0,52.9,29.93,North,355,0.6,1.2,96,0.00,CLR,BKN,0.00,WeatherDisplay:10.37,2013-08-25 13:44:00,
2013-08-25 06:45:00,54.0,52.9,29.93,North,355,0.6,3.5,96,0.00,CLR,BKN,0.00,WeatherDisplay:10.37,2013-08-25 13:45:00,
2013-08-25 06:47:00,54.0,52.9,29.93,North,355,0.0,0.0,96,0.00,CLR,BKN,0.00,WeatherDisplay:10.37,2013-08-25 13:47:00,
2013-08-25 06:50:00,54.0,52.6,29.93,NE,45,0.0,0.0,95,0.00,CLR,BKN,0.00,WeatherDisplay:10.37,2013-08-25 13:50:00,
2013-08-25 06:52:00,54.0,52.9,29.93,NE,44,0.0,0.0,96,0.00,CLR,BKN,0.00,WeatherDisplay:10.37,2013-08-25 13:52:00,
2013-08-25 06:55:00,54.0,52.6,29.93,NE,44,0.0,0.0,95,0.00,CLR,BKN,0.00,WeatherDisplay:10.37,2013-08-25 13:55:00,
2013-08-25 06:56:00,54.0,52.6,29.93,NE,44,0.0,0.0,95,0.00,CLR,BKN,0.00,WeatherDisplay:10.37,2013-08-25 13:56:00,
2013-08-25 06:59:00,54.0,52.9,29.93,NE,44,0.0,0.0,96,0.00,CLR,BKN,0.00,WeatherDisplay:10.37,2013-08-25 13:59:00,
2013-08-25 07:00:00,54.0,52.9,29.93,NE,44,0.0,0.0,96,0.00,CLR,BKN,0.00,WeatherDisplay:10.37,2013-08-25 14:00:00,
2013-08-25 07:01:00,54.0,52.9,29.93,NE,44,0.0,0.0,96,0.00,CLR,BKN,0.00,WeatherDisplay:10.37,2013-08-25 14:01:00,
2013-08-25 07:04:00,54.0,52.9,29.93,NE,44,0.0,0.0,96,0.00,CLR,BKN,0.00,WeatherDisplay:10.37,2013-08-25 14:04:00,
2013-08-25 07:05:00,54.0,52.9,29.93,NE,44,0.0,0.0,96,0.00,CLR,BKN,0.00,WeatherDisplay:10.37,2013-08-25 14:05:00,
2013-08-25 07:06:00,54.0,52.9,29.93,NE,44,0.0,0.0,96,0.00,CLR,BKN,0.00,WeatherDisplay:10.37,2013-08-25 14:06:00,
2013-08-25 07:07:00,54.0,52.9,29.93,NE,44,0.0,0.0,96,0.00,CLR,BKN,0.00,WeatherDisplay:10.37,2013-08-25 14:07:00,
2013-08-25 07:09:00,54.1,53.0,29.94,NE,44,0.0,0.0,96,0.00,CLR,BKN,0.00,WeatherDisplay:10.37,2013-08-25 14:09:00,
2013-08-25 07:11:00,54.1,53.0,29.94,NE,44,0.0,1.2,96,0.00,CLR,BKN,0.00,WeatherDisplay:10.37,2013-08-25 14:11:00,
2013-08-25 07:12:00,54.1,53.0,29.94,NE,44,0.0,1.2,96,0.00,CLR,BKN,0.00,WeatherDisplay:10.37,2013-08-25 14:12:00,
2013-08-25 07:14:00,54.1,53.0,29.94,NE,44,0.0,1.2,96,0.00,CLR,BKN,0.00,WeatherDisplay:10.37,2013-08-25 14:14:00,
2013-08-25 07:16:00,54.1,53.0,29.93,NE,44,0.2,1.0,96,0.00,CLR,BKN,0.00,WeatherDisplay:10.37,2013-08-25 14:16:00,
2013-08-25 07:17:00,54.1,53.0,29.93,NE,44,0.1,1.2,96,0.00,CLR,BKN,0.00,WeatherDisplay:10.37,2013-08-25 14:17:00,
2013-08-25 07:19:00,54.2,52.8,29.93,NE,44,0.0,1.2,95,0.00,CLR,BKN,0.00,WeatherDisplay:10.37,2013-08-25 14:19:00,
2013-08-25 07:21:00,54.2,52.8,29.93,NE,44,0.0,0.0,95,0.00,CLR,BKN,0.00,WeatherDisplay:10.37,2013-08-25 14:21:00,
2013-08-25 07:22:00,54.2,52.8,29.93,NE,44,0.0,0.0,95,0.00,CLR,BKN,0.00,WeatherDisplay:10.37,2013-08-25 14:22:00,
2013-08-25 07:24:00,54.2,52.8,29.93,NE,44,0.0,0.0,95,0.00,CLR,BKN,0.00,WeatherDisplay:10.37,2013-08-25 14:24:00,
2013-08-25 07:27:00,54.2,52.8,29.93,NE,44,0.0,1.2,95,0.00,CLR,BKN,0.00,WeatherDisplay:10.37,2013-08-25 14:27:00,
2013-08-25 07:29:00,54.3,52.9,29.93,NE,44,0.0,0.0,95,0.00,CLR,BKN,0.00,WeatherDisplay:10.37,2013-08-25 14:29:00,
2013-08-25 07:32:00,54.3,52.9,29.93,NNE,32,1.2,3.5,95,0.00,CLR,BKN,0.00,WeatherDisplay:10.37,2013-08-25 14:32:00,
2013-08-25 07:33:00,54.3,52.9,29.93,NNE,32,0.0,2.3,95,0.00,CLR,BKN,0.00,WeatherDisplay:10.37,2013-08-25 14:33:00,
2013-08-25 07:35:00,54.4,53.0,29.93,NNE,16,0.6,2.3,95,0.00,CLR,BKN,0.00,WeatherDisplay:10.37,2013-08-25 14:35:00,
2013-08-25 07:37:00,54.4,53.0,29.93,NNE,16,0.0,0.0,95,0.00,CLR,BKN,0.00,WeatherDisplay:10.37,2013-08-25 14:37:00,
2013-08-25 07:38:00,54.4,53.0,29.93,North,360,0.0,0.0,95,0.00,CLR,BKN,0.00,WeatherDisplay:10.37,2013-08-25 14:38:00,
2013-08-25 07:40:00,54.5,53.1,29.93,North,360,0.2,2.3,95,0.00,CLR,BKN,0.00,WeatherDisplay:10.37,2013-08-25 14:40:00,
2013-08-25 07:42:00,54.7,53.3,29.94,North,360,0.0,1.2,95,0.00,CLR,BKN,0.00,WeatherDisplay:10.37,2013-08-25 14:42:00,
2013-08-25 07:43:00,54.7,53.3,29.94,North,360,0.0,1.2,95,0.00,CLR,BKN,0.00,WeatherDisplay:10.37,2013-08-25 14:43:00,
2013-08-25 07:45:00,54.9,53.2,29.94,North,360,0.1,2.3,94,0.00,CLR,BKN,0.00,WeatherDisplay:10.37,2013-08-25 14:45:00,
2013-08-25 07:48:00,55.1,53.1,29.94,NNE,33,0.5,2.3,93,0.00,CLR,BKN,0.00,WeatherDisplay:10.37,2013-08-25 14:48:00,
2013-08-25 07:50:00,55.3,53.6,29.94,NNE,33,0.0,0.0,94,0.00,CLR,BKN,0.00,WeatherDisplay:10.37,2013-08-25 14:50:00,
2013-08-25 07:53:00,55.5,53.8,29.93,NW,321,0.2,3.0,94,0.00,CLR,BKN,0.00,WeatherDisplay:10.37,2013-08-25 14:53:00,
2013-08-25 07:54:00,55.6,53.9,29.94,NNE,17,1.2,3.5,94,0.00,CLR,BKN,0.00,WeatherDisplay:10.37,2013-08-25 14:54:00,
2013-08-25 07:55:00,55.8,53.8,29.94,NNE,17,0.0,2.3,93,0.00,CLR,BKN,0.00,WeatherDisplay:10.37,2013-08-25 14:55:00,
2013-08-25 07:58:00,56.0,54.0,29.93,NNE,17,0.2,2.3,93,0.00,CLR,BKN,0.00,WeatherDisplay:10.37,2013-08-25 14:58:00,
2013-08-25 07:59:00,56.1,53.8,29.93,NNE,17,0.0,1.2,92,0.00,CLR,BKN,0.00,WeatherDisplay:10.37,2013-08-25 14:59:00,
2013-08-25 08:00:00,56.2,53.9,29.94,NE,40,0.7,0.0,92,0.00,CLR,BKN,0.00,WeatherDisplay:10.37,2013-08-25 15:00:00,
2013-08-25 08:03:00,56.5,54.2,29.94,NNW,342,0.7,2.3,92,0.00,CLR,BKN,0.00,WeatherDisplay:10.37,2013-08-25 15:03:00,
2013-08-25 08:04:00,56.6,54.3,29.94,NNW,342,0.5,3.5,92,0.00,CLR,BKN,0.00,WeatherDisplay:10.37,2013-08-25 15:04:00,
2013-08-25 08:05:00,56.7,54.4,29.94,NNW,347,0.1,2.3,92,0.00,CLR,BKN,0.00,WeatherDisplay:10.37,2013-08-25 15:05:00,
2013-08-25 08:08:00,57.0,54.4,29.93,North,5,0.2,2.0,91,0.00,CLR,BKN,0.00,WeatherDisplay:10.37,2013-08-25 15:08:00,
2013-08-25 08:09:00,57.0,54.1,29.93,North,351,0.5,2.3,90,0.00,CLR,BKN,0.00,WeatherDisplay:10.37,2013-08-25 15:09:00,
2013-08-25 08:10:00,57.1,54.5,29.93,North,360,0.3,2.3,91,0.00,CLR,BKN,0.00,WeatherDisplay:10.37,2013-08-25 15:10:00,
2013-08-25 08:11:00,57.1,54.5,29.93,North,360,0.6,2.3,91,0.00,CLR,BKN,0.00,WeatherDisplay:10.37,2013-08-25 15:11:00,
2013-08-25 08:13:00,57.3,54.4,29.93,North,350,0.9,3.5,90,0.00,CLR,BKN,0.00,WeatherDisplay:10.37,2013-08-25 15:13:00,
2013-08-25 08:14:00,57.4,54.5,29.93,NNW,348,0.1,3.5,90,0.00,CLR,BKN,0.00,WeatherDisplay:10.37,2013-08-25 15:14:00,
2013-08-25 08:15:00,57.4,54.5,29.93,NNW,348,0.1,1.2,90,0.00,CLR,BKN,0.00,WeatherDisplay:10.37,2013-08-25 15:15:00,
2013-08-25 08:16:00,57.5,54.6,29.93,North,5,1.0,3.5,90,0.00,CLR,BKN,0.00,WeatherDisplay:10.37,2013-08-25 15:16:00,
2013-08-25 08:18:00,57.6,54.4,29.93,NNE,13,0.7,3.5,89,0.00,CLR,BKN,0.00,WeatherDisplay:10.37,2013-08-25 15:18:00,
2013-08-25 08:20:00,57.6,54.4,29.93,North,360,0.1,2.0,89,0.00,CLR,BKN,0.00,WeatherDisplay:10.37,2013-08-25 15:20:00,
2013-08-25 08:21:00,57.6,54.4,29.93,North,351,0.4,2.3,89,0.00,CLR,BKN,0.00,WeatherDisplay:10.37,2013-08-25 15:21:00,
2013-08-25 08:23:00,57.6,54.1,29.93,NNW,341,1.6,2.3,88,0.00,CLR,BKN,0.00,WeatherDisplay:10.37,2013-08-25 15:23:00,
2013-08-25 08:25:00,57.6,54.4,29.93,NNW,345,0.6,2.3,89,0.00,CLR,BKN,0.00,WeatherDisplay:10.37,2013-08-25 15:25:00,
2013-08-25 08:26:00,57.6,54.4,29.93,NNW,344,0.0,1.2,89,0.00,CLR,BKN,0.00,WeatherDisplay:10.37,2013-08-25 15:26:00,
2013-08-25 08:28:00,57.6,54.7,29.93,NNW,344,0.0,1.2,90,0.00,CLR,BKN,0.00,WeatherDisplay:10.37,2013-08-25 15:28:00,
2013-08-25 08:30:00,57.7,54.5,29.93,NNE,24,0.9,2.3,89,0.00,CLR,BKN,0.00,WeatherDisplay:10.37,2013-08-25 15:30:00,
2013-08-25 08:31:00,57.7,54.5,29.93,NNE,31,0.6,2.3,89,0.00,CLR,BKN,0.00,WeatherDisplay:10.37,2013-08-25 15:31:00,
2013-08-25 08:34:00,57.8,54.6,29.93,NE,41,0.1,3.5,89,0.00,CLR,BKN,0.00,WeatherDisplay:10.37,2013-08-25 15:34:00,
2013-08-25 08:35:00,57.8,54.9,29.93,NE,41,0.0,0.0,90,0.00,CLR,BKN,0.00,WeatherDisplay:10.37,2013-08-25 15:35:00,
2013-08-25 08:36:00,57.8,54.9,29.93,NE,41,0.1,1.2,90,0.00,CLR,BKN,0.00,WeatherDisplay:10.37,2013-08-25 15:36:00,
2013-08-25 08:37:00,57.9,55.0,29.93,NE,40,0.8,3.5,90,0.00,CLR,BKN,0.00,WeatherDisplay:10.37,2013-08-25 15:37:00,
2013-08-25 08:39:00,57.9,54.4,29.93,NE,35,0.0,3.5,88,0.00,CLR,BKN,0.00,WeatherDisplay:10.37,2013-08-25 15:39:00,
2013-08-25 08:40:00,58.0,54.8,29.93,NNW,337,0.7,1.2,89,0.00,CLR,BKN,0.00,WeatherDisplay:10.37,2013-08-25 15:40:00,
2013-08-25 08:41:00,58.0,54.5,29.93,NNW,337,0.1,3.5,88,0.00,CLR,BKN,0.00,WeatherDisplay:10.37,2013-08-25 15:41:00,
2013-08-25 08:42:00,58.0,54.5,29.93,NNW,337,0.0,0.0,88,0.00,CLR,BKN,0.00,WeatherDisplay:10.37,2013-08-25 15:42:00,
2013-08-25 08:44:00,58.2,54.7,29.93,North,355,0.2,1.2,88,0.00,CLR,BKN,0.00,WeatherDisplay:10.37,2013-08-25 15:44:00,
2013-08-25 08:45:00,58.2,54.7,29.93,North,349,1.0,3.5,88,0.00,CLR,BKN,0.00,WeatherDisplay:10.37,2013-08-25 15:45:00,
2013-08-25 08:46:00,58.2,54.3,29.93,North,349,0.0,1.2,87,0.00,CLR,BKN,0.00,WeatherDisplay:10.37,2013-08-25 15:46:00,
2013-08-25 08:47:00,58.3,54.4,29.93,North,350,0.4,2.3,87,0.00,CLR,BKN,0.00,WeatherDisplay:10.37,2013-08-25 15:47:00,
2013-08-25 08:49:00,58.3,54.8,29.93,North,350,0.0,0.0,88,0.00,CLR,BKN,0.00,WeatherDisplay:10.37,2013-08-25 15:49:00,
2013-08-25 08:50:00,58.4,54.5,29.93,North,350,0.1,0.0,87,0.00,CLR,BKN,0.00,WeatherDisplay:10.37,2013-08-25 15:50:00,
2013-08-25 08:52:00,58.4,54.5,29.93,North,350,0.0,1.2,87,0.00,CLR,BKN,0.00,WeatherDisplay:10.37,2013-08-25 15:52:00,
2013-08-25 08:54:00,58.5,55.0,29.93,North,350,0.1,2.3,88,0.00,CLR,BKN,0.00,WeatherDisplay:10.37,2013-08-25 15:54:00,
2013-08-25 08:55:00,58.6,55.1,29.93,North,350,0.0,1.2,88,0.00,CLR,BKN,0.00,WeatherDisplay:10.37,2013-08-25 15:55:00,
2013-08-25 08:57:00,58.6,55.1,29.93,North,350,0.1,1.2,88,0.00,CLR,BKN,0.00,WeatherDisplay:10.37,2013-08-25 15:57:00,
2013-08-25 08:58:00,58.7,55.2,29.93,NNW,340,0.6,2.3,88,0.00,CLR,BKN,0.00,WeatherDisplay:10.37,2013-08-25 15:58:00,
2013-08-25 08:59:00,58.8,55.3,29.93,North,349,0.4,3.0,88,0.00,CLR,BKN,0.00,WeatherDisplay:10.37,2013-08-25 15:59:00,
2013-08-25 09:01:00,58.8,54.9,29.93,North,349,0.1,1.2,87,0.00,CLR,BKN,0.00,WeatherDisplay:10.37,2013-08-25 16:01:00,
2013-08-25 09:02:00,58.9,55.0,29.93,NNW,344,1.5,3.5,87,0.00,CLR,BKN,0.00,WeatherDisplay:10.37,2013-08-25 16:02:00,
2013-08-25 09:04:00,58.9,54.7,29.93,North,5,0.5,3.5,86,0.00,CLR,BKN,0.00,WeatherDisplay:10.37,2013-08-25 16:04:00,
2013-08-25 09:06:00,58.9,54.7,29.93,North,11,0.1,1.2,86,0.00,CLR,BKN,0.00,WeatherDisplay:10.37,2013-08-25 16:06:00,
2013-08-25 09:07:00,58.9,54.7,29.93,North,5,0.0,1.2,86,0.00,CLR,BKN,0.00,WeatherDisplay:10.37,2013-08-25 16:07:00,
2013-08-25 09:09:00,59.0,54.8,29.93,NE,36,0.7,3.5,86,0.00,CLR,BKN,0.00,WeatherDisplay:10.37,2013-08-25 16:09:00,
2013-08-25 09:11:00,59.1,54.6,29.93,NE,40,0.0,1.2,85,0.00,CLR,BKN,0.00,WeatherDisplay:10.37,2013-08-25 16:11:00,
2013-08-25 09:12:00,59.1,54.6,29.93,NNW,346,0.1,1.0,85,0.00,CLR,BKN,0.00,WeatherDisplay:10.37,2013-08-25 16:12:00,
2013-08-25 09:13:00,59.1,54.6,29.93,NNW,347,0.4,0.0,85,0.00,CLR,BKN,0.00,WeatherDisplay:10.37,2013-08-25 16:13:00,
2013-08-25 09:14:00,59.2,54.7,29.93,NNW,347,0.0,0.0,85,0.00,CLR,BKN,0.00,WeatherDisplay:10.37,2013-08-25 16:14:00,
2013-08-25 09:16:00,59.2,54.7,29.93,NNW,331,0.0,3.5,85,0.00,CLR,BKN,0.00,WeatherDisplay:10.37,2013-08-25 16:16:00,
2013-08-25 09:17:00,59.3,54.8,29.93,ENE,57,0.5,2.3,85,0.00,CLR,BKN,0.00,WeatherDisplay:10.37,2013-08-25 16:17:00,
2013-08-25 09:18:00,59.3,54.8,29.93,NE,53,0.5,2.3,85,0.00,CLR,BKN,0.00,WeatherDisplay:10.37,2013-08-25 16:18:00,
2013-08-25 09:19:00,59.3,54.8,29.93,NE,42,0.2,0.0,85,0.00,CLR,BKN,0.00,WeatherDisplay:10.37,2013-08-25 16:19:00,
2013-08-25 09:20:00,59.3,54.8,29.93,NE,42,0.2,1.2,85,0.00,CLR,BKN,0.00,WeatherDisplay:10.37,2013-08-25 16:20:00,
2013-08-25 09:21:00,59.4,54.9,29.93,NE,42,0.2,2.0,85,0.00,CLR,BKN,0.00,WeatherDisplay:10.37,2013-08-25 16:21:00,
2013-08-25 09:23:00,59.5,55.0,29.93,NE,37,0.1,1.2,85,0.00,CLR,BKN,0.00,WeatherDisplay:10.37,2013-08-25 16:23:00,
2013-08-25 09:25:00,59.6,55.1,29.93,NE,36,0.1,1.2,85,0.00,CLR,BKN,0.00,WeatherDisplay:10.37,2013-08-25 16:25:00,
2013-08-25 09:26:00,59.6,55.1,29.93,ENE,62,0.9,3.5,85,0.00,CLR,BKN,0.00,WeatherDisplay:10.37,2013-08-25 16:26:00,
2013-08-25 09:28:00,59.6,54.8,29.93,NNE,30,0.0,2.3,84,0.00,CLR,BKN,0.00,WeatherDisplay:10.37,2013-08-25 16:28:00,
2013-08-25 09:30:00,59.7,55.2,29.93,NNE,30,0.0,2.3,85,0.00,CLR,BKN,0.00,WeatherDisplay:10.37,2013-08-25 16:30:00,
2013-08-25 09:31:00,59.8,55.6,29.93,NNE,30,0.1,2.0,86,0.00,CLR,BKN,0.00,WeatherDisplay:10.37,2013-08-25 16:31:00,
2013-08-25 09:33:00,59.9,55.4,29.93,NE,54,1.5,3.5,85,0.00,CLR,BKN,0.00,WeatherDisplay:10.37,2013-08-25 16:33:00,
2013-08-25 09:35:00,60.0,55.2,29.93,ENE,76,0.7,1.2,84,0.00,CLR,BKN,0.00,WeatherDisplay:10.37,2013-08-25 16:35:00,
2013-08-25 09:36:00,60.1,54.9,29.93,NE,44,0.8,3.5,83,0.00,CLR,BKN,0.00,WeatherDisplay:10.37,2013-08-25 16:36:00,
2013-08-25 09:38:00,60.2,55.0,29.93,NE,36,0.0,1.2,83,0.00,CLR,BKN,0.00,WeatherDisplay:10.37,2013-08-25 16:38:00,
2013-08-25 09:40:00,60.3,55.1,29.93,NE,36,0.0,1.2,83,0.00,CLR,BKN,0.00,WeatherDisplay:10.37,2013-08-25 16:40:00,
2013-08-25 09:41:00,60.4,55.2,29.93,NE,36,0.6,1.2,83,0.00,CLR,BKN,0.00,WeatherDisplay:10.37,2013-08-25 16:41:00,
2013-08-25 09:42:00,60.4,54.9,29.93,NNE,28,0.8,3.5,82,0.00,CLR,BKN,0.00,WeatherDisplay:10.37,2013-08-25 16:42:00,
2013-08-25 09:43:00,60.5,55.0,29.93,NW,323,0.4,3.5,82,0.00,CLR,BKN,0.00,WeatherDisplay:10.37,2013-08-25 16:43:00,
2013-08-25 09:45:00,60.5,54.6,29.93,NW,321,0.1,2.3,81,0.00,CLR,BKN,0.00,WeatherDisplay:10.37,2013-08-25 16:45:00,
2013-08-25 09:47:00,60.6,54.7,29.93,North,349,0.1,1.2,81,0.00,CLR,BKN,0.00,WeatherDisplay:10.37,2013-08-25 16:47:00,
2013-08-25 09:49:00,60.8,55.3,29.93,North,349,0.1,1.2,82,0.00,CLR,BKN,0.00,WeatherDisplay:10.37,2013-08-25 16:49:00,
2013-08-25 09:50:00,60.9,55.0,29.93,North,355,0.6,3.5,81,0.00,CLR,BKN,0.00,WeatherDisplay:10.37,2013-08-25 16:50:00,
2013-08-25 09:52:00,61.1,55.6,29.93,WNW,294,0.0,2.3,82,0.00,CLR,BKN,0.00,WeatherDisplay:10.37,2013-08-25 16:52:00,
2013-08-25 09:53:00,61.1,55.6,29.93,NNE,12,0.5,3.0,82,0.00,CLR,BKN,0.00,WeatherDisplay:10.37,2013-08-25 16:53:00,
2013-08-25 09:54:00,61.3,55.1,29.93,NNE,19,2.2,4.6,80,0.00,CLR,BKN,0.00,WeatherDisplay:10.37,2013-08-25 16:54:00,
2013-08-25 09:56:00,61.4,55.2,29.93,NNW,336,1.7,3.5,80,0.00,CLR,BKN,0.00,WeatherDisplay:10.37,2013-08-25 16:56:00,
2013-08-25 09:57:00,61.6,55.4,29.93,NNW,336,0.2,2.3,80,0.00,CLR,BKN,0.00,WeatherDisplay:10.37,2013-08-25 16:57:00,
2013-08-25 09:58:00,61.7,55.8,29.93,NE,41,0.4,3.0,81,0.00,CLR,BKN,0.00,WeatherDisplay:10.37,2013-08-25 16:58:00,
2013-08-25 09:59:00,61.9,55.3,29.93,North,355,0.7,3.5,79,0.00,CLR,BKN,0.00,WeatherDisplay:10.37,2013-08-25 16:59:00,
2013-08-25 10:00:00,61.9,55.3,29.93,NNW,342,1.4,4.0,79,0.00,CLR,BKN,0.00,WeatherDisplay:10.37,2013-08-25 17:00:00,
2013-08-25 10:01:00,62.1,55.5,29.93,NW,320,0.1,3.5,79,0.00,CLR,BKN,0.00,WeatherDisplay:10.37,2013-08-25 17:01:00,
2013-08-25 10:02:00,62.2,55.3,29.92,NW,323,0.2,1.2,78,0.00,CLR,BKN,0.00,WeatherDisplay:10.37,2013-08-25 17:02:00,
2013-08-25 10:03:00,62.2,55.6,29.92,NNW,331,0.6,2.3,79,0.00,CLR,BKN,0.00,WeatherDisplay:10.37,2013-08-25 17:03:00,
2013-08-25 10:05:00,62.5,55.5,29.93,NNE,22,1.0,2.3,78,0.00,CLR,BKN,0.00,WeatherDisplay:10.37,2013-08-25 17:05:00,
2013-08-25 10:06:00,62.7,55.7,29.92,NNE,17,1.5,3.5,78,0.00,CLR,BKN,0.00,WeatherDisplay:10.37,2013-08-25 17:06:00,
2013-08-25 10:08:00,62.8,55.8,29.93,NNW,348,1.2,3.5,78,0.00,CLR,BKN,0.00,WeatherDisplay:10.37,2013-08-25 17:08:00,
2013-08-25 10:10:00,63.0,55.3,29.93,NNW,348,0.0,0.0,76,0.00,CLR,BKN,0.00,WeatherDisplay:10.37,2013-08-25 17:10:00,
2013-08-25 10:12:00,63.2,55.9,29.93,NNW,348,0.4,2.3,77,0.00,CLR,BKN,0.00,WeatherDisplay:10.37,2013-08-25 17:12:00,
2013-08-25 10:13:00,63.4,55.3,29.93,NE,47,1.2,4.0,75,0.00,CLR,BKN,0.00,WeatherDisplay:10.37,2013-08-25 17:13:00,
2013-08-25 10:15:00,63.5,56.2,29.93,NE,35,0.2,1.2,77,0.00,CLR,BKN,0.00,WeatherDisplay:10.37,2013-08-25 17:15:00,
2013-08-25 10:17:00,63.8,56.1,29.93,NE,35,1.0,4.0,76,0.00,CLR,BKN,0.00,WeatherDisplay:10.37,2013-08-25 17:17:00,
2013-08-25 10:18:00,63.7,55.3,29.93,NE,35,1.3,3.5,74,0.00,CLR,BKN,0.00,WeatherDisplay:10.37,2013-08-25 17:18:00,
2013-08-25 10:20:00,63.6,55.5,29.93,NE,34,0.8,3.5,75,0.00,CLR,BKN,0.00,WeatherDisplay:10.37,2013-08-25 17:20:00,
2013-08-25 10:21:00,63.7,55.6,29.93,NNE,28,0.1,3.5,75,0.00,CLR,BKN,0.00,WeatherDisplay:10.37,2013-08-25 17:21:00,
2013-08-25 10:22:00,63.9,56.5,29.93,North,360,0.7,2.0,77,0.00,CLR,BKN,0.00,WeatherDisplay:10.37,2013-08-25 17:22:00,
2013-08-25 10:23:00,64.1,56.4,29.93,NNW,336,1.4,2.3,76,0.00,CLR,BKN,0.00,WeatherDisplay:10.37,2013-08-25 17:23:00,
2013-08-25 10:24:00,64.1,56.4,29.93,NNW,336,1.1,3.5,76,0.00,CLR,BKN,0.00,WeatherDisplay:10.37,2013-08-25 17:24:00,
2013-08-25 10:25:00,64.3,56.2,29.92,NNW,336,0.1,1.2,75,0.00,CLR,BKN,0.00,WeatherDisplay:10.37,2013-08-25 17:25:00,
2013-08-25 10:26:00,64.4,56.3,29.93,NNW,336,0.0,0.0,75,0.00,CLR,BKN,0.00,WeatherDisplay:10.37,2013-08-25 17:26:00,
2013-08-25 10:28:00,64.5,56.4,29.93,NNW,336,0.1,1.2,75,0.00,CLR,BKN,0.00,WeatherDisplay:10.37,2013-08-25 17:28:00,
2013-08-25 10:29:00,64.5,56.0,29.92,NNW,336,0.0,1.2,74,0.00,CLR,BKN,0.00,WeatherDisplay:10.37,2013-08-25 17:29:00,
2013-08-25 10:30:00,64.5,55.7,29.93,NNW,336,0.0,0.0,73,0.00,CLR,BKN,0.00,WeatherDisplay:10.37,2013-08-25 17:30:00,
2013-08-25 10:32:00,64.4,55.9,29.92,NNW,336,0.1,1.0,74,0.00,CLR,BKN,0.00,WeatherDisplay:10.37,2013-08-25 17:32:00,
2013-08-25 10:33:00,64.3,55.8,29.93,NNW,336,0.1,1.2,74,0.00,CLR,BKN,0.00,WeatherDisplay:10.37,2013-08-25 17:33:00,
2013-08-25 10:34:00,64.2,55.7,29.93,NNW,336,0.1,1.2,74,0.00,CLR,BKN,0.00,WeatherDisplay:10.37,2013-08-25 17:34:00,
2013-08-25 10:35:00,64.2,56.1,29.93,NNW,336,0.1,0.0,75,0.00,CLR,BKN,0.00,WeatherDisplay:10.37,2013-08-25 17:35:00,
2013-08-25 10:37:00,64.1,56.0,29.93,North,355,0.6,2.0,75,0.00,CLR,BKN,0.00,WeatherDisplay:10.37,2013-08-25 17:37:00,
2013-08-25 10:38:00,64.0,55.9,29.93,East,92,2.2,3.5,75,0.00,CLR,BKN,0.00,WeatherDisplay:10.37,2013-08-25 17:38:00,
2013-08-25 10:39:00,63.9,55.8,29.93,ENE,63,1.0,3.5,75,0.00,CLR,BKN,0.00,WeatherDisplay:10.37,2013-08-25 17:39:00,
2013-08-25 10:40:00,63.8,55.7,29.93,ENE,63,0.1,3.5,75,0.00,CLR,BKN,0.00,WeatherDisplay:10.37,2013-08-25 17:40:00,
2013-08-25 10:42:00,63.6,55.5,29.93,ENE,62,0.4,3.0,75,0.00,CLR,BKN,0.00,WeatherDisplay:10.37,2013-08-25 17:42:00,
2013-08-25 10:44:00,63.5,55.4,29.93,ENE,62,0.2,3.5,75,0.00,CLR,BKN,0.00,WeatherDisplay:10.37,2013-08-25 17:44:00,
2013-08-25 10:45:00,63.5,55.8,29.93,ENE,62,0.0,0.0,76,0.00,CLR,BKN,0.00,WeatherDisplay:10.37,2013-08-25 17:45:00,
2013-08-25 10:46:00,63.4,55.7,29.93,ENE,62,0.0,1.2,76,0.00,CLR,BKN,0.00,WeatherDisplay:10.37,2013-08-25 17:46:00,
2013-08-25 10:47:00,63.3,56.0,29.93,ENE,62,0.0,0.0,77,0.00,CLR,BKN,0.00,WeatherDisplay:10.37,2013-08-25 17:47:00,
2013-08-25 10:49:00,63.4,56.1,29.92,ENE,62,0.0,0.0,77,0.00,CLR,BKN,0.00,WeatherDisplay:10.37,2013-08-25 17:49:00,
2013-08-25 10:50:00,63.4,56.1,29.92,ENE,62,0.0,1.0,77,0.00,CLR,BKN,0.00,WeatherDisplay:10.37,2013-08-25 17:50:00,
2013-08-25 10:51:00,63.5,55.8,29.92,ENE,62,0.0,1.2,76,0.00,CLR,BKN,0.00,WeatherDisplay:10.37,2013-08-25 17:51:00,
2013-08-25 10:52:00,63.6,56.3,29.92,North,355,0.5,2.3,77,0.00,CLR,BKN,0.00,WeatherDisplay:10.37,2013-08-25 17:52:00,
2013-08-25 10:54:00,63.8,56.8,29.93,North,360,0.3,1.2,78,0.00,CLR,BKN,0.00,WeatherDisplay:10.37,2013-08-25 17:54:00,
2013-08-25 10:55:00,64.0,56.6,29.93,North,360,0.2,2.3,77,0.00,CLR,BKN,0.00,WeatherDisplay:10.37,2013-08-25 17:55:00,
2013-08-25 10:56:00,64.1,56.7,29.92,North,360,0.3,1.2,77,0.00,CLR,BKN,0.00,WeatherDisplay:10.37,2013-08-25 17:56:00,
2013-08-25 10:57:00,64.3,56.9,29.92,North,360,0.1,1.2,77,0.00,CLR,BKN,0.00,WeatherDisplay:10.37,2013-08-25 17:57:00,
2013-08-25 11:00:00,64.6,56.9,29.92,NNE,13,0.7,3.5,76,0.00,CLR,BKN,0.00,WeatherDisplay:10.37,2013-08-25 18:00:00,
2013-08-25 11:01:00,64.7,56.6,29.92,NNE,33,0.7,3.5,75,0.00,CLR,BKN,0.00,WeatherDisplay:10.37,2013-08-25 18:01:00,
2013-08-25 11:02:00,64.8,56.7,29.92,NNE,33,0.0,1.2,75,0.00,CLR,BKN,0.00,WeatherDisplay:10.37,2013-08-25 18:02:00,
2013-08-25 11:05:00,65.0,56.5,29.92,NNE,33,0.7,3.5,74,0.00,CLR,BKN,0.00,WeatherDisplay:10.37,2013-08-25 18:05:00,
2013-08-25 11:07:00,65.0,56.9,29.92,NNE,32,0.0,2.3,75,0.00,CLR,BKN,0.00,WeatherDisplay:10.37,2013-08-25 18:07:00,
2013-08-25 11:08:00,65.0,56.5,29.92,NNE,31,0.0,0.0,74,0.00,CLR,BKN,0.00,WeatherDisplay:10.37,2013-08-25 18:08:00,
2013-08-25 11:10:00,65.1,56.6,29.92,NNE,31,0.0,0.0,74,0.00,CLR,BKN,0.00,WeatherDisplay:10.37,2013-08-25 18:10:00,
2013-08-25 11:13:00,65.2,56.3,29.92,NNE,32,0.0,0.0,73,0.00,CLR,BKN,0.00,WeatherDisplay:10.37,2013-08-25 18:13:00,
2013-08-25 11:14:00,65.1,56.6,29.93,NNE,32,0.0,0.0,74,0.00,CLR,BKN,0.00,WeatherDisplay:10.37,2013-08-25 18:14:00,
2013-08-25 11:15:00,65.1,56.6,29.93,NNE,31,0.0,0.0,74,0.00,CLR,BKN,0.00,WeatherDisplay:10.37,2013-08-25 18:15:00,
2013-08-25 11:16:00,65.2,56.7,29.93,NNE,31,0.0,0.0,74,0.00,CLR,BKN,0.00,WeatherDisplay:10.37,2013-08-25 18:16:00,
2013-08-25 11:18:00,65.0,56.1,29.93,NNE,31,0.0,0.0,73,0.00,CLR,BKN,0.00,WeatherDisplay:10.37,2013-08-25 18:18:00,
2013-08-25 11:19:00,64.9,56.0,29.93,NNE,32,0.0,0.0,73,0.00,CLR,BKN,0.00,WeatherDisplay:10.37,2013-08-25 18:19:00,
2013-08-25 11:20:00,64.8,55.9,29.93,NNE,32,0.0,0.0,73,0.00,CLR,BKN,0.00,WeatherDisplay:10.37,2013-08-25 18:20:00,
2013-08-25 11:21:00,64.7,55.8,29.93,NNE,31,0.1,1.2,73,0.00,CLR,BKN,0.00,WeatherDisplay:10.37,2013-08-25 18:21:00,
2013-08-25 11:23:00,64.5,56.4,29.93,NNE,32,0.0,0.0,75,0.00,CLR,BKN,0.00,WeatherDisplay:10.37,2013-08-25 18:23:00,
2013-08-25 11:24:00,64.3,56.2,29.93,NNE,32,0.0,1.2,75,0.00,CLR,BKN,0.00,WeatherDisplay:10.37,2013-08-25 18:24:00,
2013-08-25 11:26:00,64.0,55.9,29.93,East,94,0.9,2.0,75,0.00,CLR,BKN,0.00,WeatherDisplay:10.37,2013-08-25 18:26:00,
2013-08-25 11:28:00,63.8,56.1,29.93,East,94,0.0,0.0,76,0.00,CLR,BKN,0.00,WeatherDisplay:10.37,2013-08-25 18:28:00,
2013-08-25 11:29:00,63.7,56.0,29.93,East,94,0.0,0.0,76,0.00,CLR,BKN,0.00,WeatherDisplay:10.37,2013-08-25 18:29:00,
2013-08-25 11:31:00,63.4,56.1,29.93,SW,215,0.9,3.5,77,0.00,CLR,BKN,0.00,WeatherDisplay:10.37,2013-08-25 18:31:00,
2013-08-25 11:34:00,63.2,55.9,29.93,SW,215,0.0,0.0,77,0.00,CLR,BKN,0.00,WeatherDisplay:10.37,2013-08-25 18:34:00,
2013-08-25 11:35:00,63.0,56.0,29.93,SW,215,0.0,0.0,78,0.00,CLR,BKN,0.00,WeatherDisplay:10.37,2013-08-25 18:35:00,
2013-08-25 11:36:00,63.0,56.4,29.93,SW,215,0.0,0.0,79,0.00,CLR,BKN,0.00,WeatherDisplay:10.37,2013-08-25 18:36:00,
2013-08-25 11:39:00,62.8,56.2,29.93,SW,215,0.6,2.3,79,0.00,CLR,BKN,0.00,WeatherDisplay:10.37,2013-08-25 18:39:00,
2013-08-25 11:40:00,62.7,56.1,29.93,SW,217,0.8,3.5,79,0.00,CLR,BKN,0.00,WeatherDisplay:10.37,2013-08-25 18:40:00,
2013-08-25 11:41:00,62.6,56.0,29.93,SW,217,0.0,1.2,79,0.00,CLR,BKN,0.00,WeatherDisplay:10.37,2013-08-25 18:41:00,
2013-08-25 11:44:00,62.5,55.9,29.93,SW,217,0.0,1.2,79,0.00,CLR,BKN,0.00,WeatherDisplay:10.37,2013-08-25 18:44:00,
2013-08-25 11:45:00,62.3,55.7,29.93,SW,217,0.0,0.0,79,0.00,CLR,BKN,0.00,WeatherDisplay:10.37,2013-08-25 18:45:00,
2013-08-25 11:46:00,62.3,55.7,29.93,SW,217,0.0,0.0,79,0.00,CLR,BKN,0.00,WeatherDisplay:10.37,2013-08-25 18:46:00,
2013-08-25 11:49:00,62.1,55.9,29.93,SW,217,0.0,0.0,80,0.00,CLR,BKN,0.00,WeatherDisplay:10.37,2013-08-25 18:49:00,
2013-08-25 11:50:00,62.1,55.9,29.93,SW,217,0.0,0.0,80,0.00,CLR,BKN,0.00,WeatherDisplay:10.37,2013-08-25 18:50:00,
2013-08-25 11:51:00,62.1,56.2,29.93,SW,217,0.0,0.0,81,0.00,CLR,BKN,0.00,WeatherDisplay:10.37,2013-08-25 18:51:00,
2013-08-25 11:54:00,62.0,56.1,29.93,SW,217,0.0,0.0,81,0.00,CLR,BKN,0.00,WeatherDisplay:10.37,2013-08-25 18:54:00,
2013-08-25 11:55:00,62.0,56.1,29.93,SW,217,0.0,1.2,81,0.00,CLR,BKN,0.00,WeatherDisplay:10.37,2013-08-25 18:55:00,
2013-08-25 11:56:00,62.0,56.1,29.93,SW,217,0.4,2.3,81,0.00,CLR,BKN,0.00,WeatherDisplay:10.37,2013-08-25 18:56:00,
2013-08-25 11:59:00,62.0,56.4,29.93,SW,217,0.0,0.0,82,0.00,CLR,BKN,0.00,WeatherDisplay:10.37,2013-08-25 18:59:00,
2013-08-25 12:00:00,62.0,56.4,29.93,SW,217,0.0,2.0,82,0.00,CLR,BKN,0.00,WeatherDisplay:10.37,2013-08-25 19:00:00,
2013-08-25 12:01:00,62.0,56.4,29.93,SW,217,0.0,1.0,82,0.00,CLR,BKN,0.00,WeatherDisplay:10.37,2013-08-25 19:01:00,
2013-08-25 12:02:00,62.0,56.4,29.93,SW,217,0.0,1.2,82,0.00,CLR,BKN,0.00,WeatherDisplay:10.37,2013-08-25 19:02:00,
2013-08-25 12:05:00,62.0,56.4,29.93,SW,217,0.0,1.2,82,0.00,CLR,BKN,0.00,WeatherDisplay:10.37,2013-08-25 19:05:00,
2013-08-25 12:06:00,62.0,56.4,29.93,SW,217,0.1,1.2,82,0.00,CLR,BKN,0.00,WeatherDisplay:10.37,2013-08-25 19:06:00,
2013-08-25 12:07:00,62.0,56.4,29.93,SW,217,0.0,0.0,82,0.00,CLR,BKN,0.00,WeatherDisplay:10.37,2013-08-25 19:07:00,
2013-08-25 12:10:00,61.9,56.3,29.93,SW,217,0.0,0.0,82,0.00,CLR,BKN,0.00,WeatherDisplay:10.37,2013-08-25 19:10:00,
2013-08-25 12:11:00,61.9,56.3,29.93,SW,217,0.0,1.0,82,0.00,CLR,BKN,0.00,WeatherDisplay:10.37,2013-08-25 19:11:00,
2013-08-25 12:13:00,61.9,56.3,29.93,SW,217,0.0,0.0,82,0.00,CLR,BKN,0.00,WeatherDisplay:10.37,2013-08-25 19:13:00,
2013-08-25 12:16:00,61.8,56.6,29.93,SW,217,0.0,0.0,83,0.00,CLR,BKN,0.00,WeatherDisplay:10.37,2013-08-25 19:16:00,
2013-08-25 12:18:00,61.8,56.6,29.93,SW,217,0.0,0.0,83,0.00,CLR,BKN,0.00,WeatherDisplay:10.37,2013-08-25 19:18:00,
2013-08-25 12:21:00,61.8,56.6,29.93,SW,217,0.0,0.0,83,0.00,CLR,BKN,0.00,WeatherDisplay:10.37,2013-08-25 19:21:00,
2013-08-25 12:23:00,61.7,56.1,29.93,SW,217,0.3,2.3,82,0.00,CLR,BKN,0.00,WeatherDisplay:10.37,2013-08-25 19:23:00,
2013-08-25 12:26:00,61.7,56.1,29.93,SW,217,0.0,0.0,82,0.00,CLR,BKN,0.00,WeatherDisplay:10.37,2013-08-25 19:26:00,
2013-08-25 12:27:00,61.7,56.5,29.93,SW,217,0.0,0.0,83,0.00,CLR,BKN,0.00,WeatherDisplay:10.37,2013-08-25 19:27:00,
2013-08-25 12:28:00,61.6,56.4,29.93,SW,217,0.0,0.0,83,0.00,CLR,BKN,0.00,WeatherDisplay:10.37,2013-08-25 19:28:00,
2013-08-25 12:29:00,61.6,56.4,29.93,SW,217,0.0,0.0,83,0.00,CLR,BKN,0.00,WeatherDisplay:10.37,2013-08-25 19:29:00,
2013-08-25 12:31:00,61.6,56.4,29.93,SW,217,0.0,0.0,83,0.00,CLR,BKN,0.00,WeatherDisplay:10.37,2013-08-25 19:31:00,
2013-08-25 12:32:00,61.6,56.4,29.93,SW,217,0.0,0.0,83,0.00,CLR,BKN,0.00,WeatherDisplay:10.37,2013-08-25 19:32:00,
2013-08-25 12:33:00,61.6,56.4,29.93,SW,217,0.0,1.2,83,0.00,CLR,BKN,0.00,WeatherDisplay:10.37,2013-08-25 19:33:00,
2013-08-25 12:34:00,61.5,56.3,29.93,SW,217,0.0,0.0,83,0.00,CLR,BKN,0.00,WeatherDisplay:10.37,2013-08-25 19:34:00,
2013-08-25 12:37:00,61.5,56.3,29.93,SW,217,0.0,0.0,83,0.00,CLR,BKN,0.00,WeatherDisplay:10.37,2013-08-25 19:37:00,
2013-08-25 12:38:00,61.4,56.5,29.93,SW,217,0.8,3.5,84,0.00,CLR,BKN,0.00,WeatherDisplay:10.37,2013-08-25 19:38:00,
2013-08-25 12:39:00,61.4,56.2,29.93,SW,217,0.2,3.5,83,0.00,CLR,BKN,0.00,WeatherDisplay:10.37,2013-08-25 19:39:00,
2013-08-25 12:42:00,61.4,56.2,29.93,SW,217,0.0,0.0,83,0.00,CLR,BKN,0.00,WeatherDisplay:10.37,2013-08-25 19:42:00,
2013-08-25 12:43:00,61.4,56.5,29.93,SW,217,0.0,0.0,84,0.00,CLR,BKN,0.00,WeatherDisplay:10.37,2013-08-25 19:43:00,
2013-08-25 12:44:00,61.4,56.2,29.93,SW,217,0.0,0.0,83,0.00,CLR,BKN,0.00,WeatherDisplay:10.37,2013-08-25 19:44:00,
2013-08-25 12:48:00,61.4,56.5,29.93,SW,217,0.0,0.0,84,0.00,CLR,BKN,0.00,WeatherDisplay:10.37,2013-08-25 19:48:00,
2013-08-25 12:49:00,61.3,56.8,29.93,SW,217,0.0,0.0,85,0.00,CLR,BKN,0.00,WeatherDisplay:10.37,2013-08-25 19:49:00,
2013-08-25 12:50:00,61.3,56.4,29.93,SW,217,0.1,0.0,84,0.00,CLR,BKN,0.00,WeatherDisplay:10.37,2013-08-25 19:50:00,
2013-08-25 12:53:00,61.3,56.8,29.93,SW,217,0.1,1.2,85,0.01,RA,BKN,0.01,WeatherDisplay:10.37,2013-08-25 19:53:00,
2013-08-25 12:54:00,61.2,56.7,29.93,SW,217,0.0,1.2,85,0.01,RA,BKN,0.01,WeatherDisplay:10.37,2013-08-25 19:54:00,
2013-08-25 12:55:00,61.2,56.7,29.93,SW,217,0.0,0.0,85,0.01,RA,BKN,0.01,WeatherDisplay:10.37,2013-08-25 19:55:00,
2013-08-25 12:58:00,61.1,57.2,29.93,SW,217,0.1,1.2,87,0.01,RA,BKN,0.01,WeatherDisplay:10.37,2013-08-25 19:58:00,
2013-08-25 12:59:00,61.0,56.8,29.93,SW,217,0.9,2.3,86,0.02,RA,BKN,0.02,WeatherDisplay:10.37,2013-08-25 19:59:00,
2013-08-25 13:00:00,61.0,56.8,29.93,SW,217,0.6,2.3,86,0.02,RA,BKN,0.02,WeatherDisplay:10.37,2013-08-25 20:00:00,
2013-08-25 13:03:00,60.8,56.9,29.93,SW,217,0.0,0.0,87,0.02,RA,BKN,0.02,WeatherDisplay:10.37,2013-08-25 20:03:00,
2013-08-25 13:04:00,60.8,57.2,29.93,SW,217,0.0,1.2,88,0.02,RA,BKN,0.02,WeatherDisplay:10.37,2013-08-25 20:04:00,
2013-08-25 13:05:00,60.8,57.2,29.93,SW,217,0.0,1.2,88,0.02,RA,BKN,0.02,WeatherDisplay:10.37,2013-08-25 20:05:00,
2013-08-25 13:06:00,60.7,57.1,29.93,SW,217,0.0,1.2,88,0.02,RA,BKN,0.02,WeatherDisplay:10.37,2013-08-25 20:06:00,
2013-08-25 13:08:00,60.7,57.1,29.92,SW,217,0.0,0.0,88,0.02,RA,BKN,0.02,WeatherDisplay:10.37,2013-08-25 20:08:00,
2013-08-25 13:09:00,60.7,57.1,29.92,SW,217,0.0,0.0,88,0.02,,BKN,0.02,WeatherDisplay:10.37,2013-08-25 20:09:00,
2013-08-25 13:10:00,60.7,57.1,29.92,SW,217,0.0,0.0,88,0.02,,BKN,0.02,WeatherDisplay:10.37,2013-08-25 20:10:00,
2013-08-25 13:11:00,60.7,57.4,29.92,SW,217,0.0,0.0,89,0.02,CLR,BKN,0.02,WeatherDisplay:10.37,2013-08-25 20:11:00,
2013-08-25 13:13:00,60.7,57.4,29.92,SW,217,0.0,0.0,89,0.02,CLR,BKN,0.02,WeatherDisplay:10.37,2013-08-25 20:13:00,
2013-08-25 13:14:00,60.7,57.7,29.92,SW,217,0.0,0.0,90,0.02,CLR,BKN,0.02,WeatherDisplay:10.37,2013-08-25 20:14:00,
2013-08-25 13:15:00,60.8,57.8,29.92,SW,217,0.0,0.0,90,0.02,CLR,BKN,0.02,WeatherDisplay:10.37,2013-08-25 20:15:00,
2013-08-25 13:16:00,60.8,57.8,29.92,SW,217,0.0,0.0,90,0.02,CLR,BKN,0.02,WeatherDisplay:10.37,2013-08-25 20:16:00,
2013-08-25 13:18:00,60.9,58.6,29.92,SW,217,0.0,0.0,92,0.02,CLR,BKN,0.02,WeatherDisplay:10.37,2013-08-25 20:18:00,
2013-08-25 13:20:00,61.0,58.7,29.92,SW,217,0.0,0.0,92,0.00,CLR,BKN,0.02,WeatherDisplay:10.37,2013-08-25 20:20:00,
2013-08-25 13:21:00,61.1,58.8,29.92,SW,217,0.0,0.0,92,0.02,CLR,BKN,0.02,WeatherDisplay:10.37,2013-08-25 20:21:00,
2013-08-25 13:23:00,61.1,58.8,29.92,SW,217,0.0,0.0,92,0.02,CLR,BKN,0.02,WeatherDisplay:10.37,2013-08-25 20:23:00,
2013-08-25 13:25:00,61.2,58.6,29.92,SW,217,0.0,0.0,91,0.02,CLR,BKN,0.02,WeatherDisplay:10.37,2013-08-25 20:25:00,
2013-08-25 13:26:00,61.2,58.2,29.92,SW,217,0.0,0.0,90,0.02,CLR,BKN,0.02,WeatherDisplay:10.37,2013-08-25 20:26:00,
2013-08-25 13:27:00,61.2,58.2,29.92,SW,217,0.0,0.0,90,0.02,CLR,BKN,0.02,WeatherDisplay:10.37,2013-08-25 20:27:00,
2013-08-25 13:28:00,61.3,58.7,29.92,SW,217,0.0,0.0,91,0.02,CLR,BKN,0.02,WeatherDisplay:10.37,2013-08-25 20:28:00,
2013-08-25 13:30:00,61.3,58.7,29.92,SW,217,0.0,0.0,91,0.02,CLR,BKN,0.02,WeatherDisplay:10.37,2013-08-25 20:30:00,
2013-08-25 13:31:00,61.3,58.7,29.92,SW,217,0.0,0.0,91,0.02,CLR,BKN,0.02,WeatherDisplay:10.37,2013-08-25 20:31:00,
2013-08-25 13:32:00,61.4,59.1,29.92,SW,217,0.0,0.0,92,0.02,CLR,BKN,0.02,WeatherDisplay:10.37,2013-08-25 20:32:00,
2013-08-25 13:33:00,61.5,58.8,29.92,SW,217,0.0,0.0,91,0.02,CLR,BKN,0.02,WeatherDisplay:10.37,2013-08-25 20:33:00,
2013-08-25 13:36:00,61.5,59.2,29.92,SW,217,0.0,0.0,92,0.02,CLR,BKN,0.02,WeatherDisplay:10.37,2013-08-25 20:36:00,
2013-08-25 13:37:00,61.6,59.3,29.92,SW,217,0.0,0.0,92,0.02,CLR,BKN,0.02,WeatherDisplay:10.37,2013-08-25 20:37:00,
2013-08-25 13:38:00,61.5,59.2,29.92,SW,217,0.0,0.0,92,0.02,CLR,BKN,0.02,WeatherDisplay:10.37,2013-08-25 20:38:00,
2013-08-25 13:41:00,61.4,58.4,29.92,SW,217,0.0,0.0,90,0.02,CLR,BKN,0.02,WeatherDisplay:10.37,2013-08-25 20:41:00,
2013-08-25 13:42:00,61.4,58.7,29.92,SW,217,0.0,0.0,91,0.02,CLR,BKN,0.02,WeatherDisplay:10.37,2013-08-25 20:42:00,
2013-08-25 13:43:00,61.4,58.7,29.92,SW,217,0.0,1.2,91,0.02,CLR,BKN,0.02,WeatherDisplay:10.37,2013-08-25 20:43:00,
2013-08-25 13:46:00,61.3,58.7,29.92,SW,217,0.1,0.0,91,0.02,CLR,BKN,0.02,WeatherDisplay:10.37,2013-08-25 20:46:00,
2013-08-25 13:47:00,61.3,58.7,29.92,SW,217,0.0,1.2,91,0.02,CLR,BKN,0.02,WeatherDisplay:10.37,2013-08-25 20:47:00,
2013-08-25 13:49:00,61.2,58.2,29.92,SW,217,0.0,0.0,90,0.02,CLR,BKN,0.02,WeatherDisplay:10.37,2013-08-25 20:49:00,
2013-08-25 13:51:00,61.2,58.2,29.92,SW,217,0.0,1.2,90,0.01,CLR,BKN,0.02,WeatherDisplay:10.37,2013-08-25 20:51:00,
2013-08-25 13:52:00,61.2,58.2,29.92,SW,217,0.0,1.2,90,0.01,CLR,BKN,0.02,WeatherDisplay:10.37,2013-08-25 20:52:00,
2013-08-25 13:53:00,61.2,58.2,29.92,SW,217,0.0,0.0,90,0.01,CLR,BKN,0.02,WeatherDisplay:10.37,2013-08-25 20:53:00,
2013-08-25 13:54:00,61.2,58.6,29.92,SW,217,0.0,0.0,91,0.01,CLR,BKN,0.02,WeatherDisplay:10.37,2013-08-25 20:54:00,
2013-08-25 13:57:00,61.1,57.8,29.92,SW,217,1.9,3.5,89,0.01,CLR,BKN,0.02,WeatherDisplay:10.37,2013-08-25 20:57:00,
2013-08-25 13:58:00,61.1,57.5,29.92,SW,217,1.0,2.3,88,0.01,CLR,BKN,0.02,WeatherDisplay:10.37,2013-08-25 20:58:00,
2013-08-25 13:59:00,61.0,57.7,29.92,SW,217,0.1,2.3,89,0.00,CLR,BKN,0.02,WeatherDisplay:10.37,2013-08-25 20:59:00,
2013-08-25 14:02:00,61.0,58.0,29.92,SW,217,0.0,0.0,90,0.00,CLR,BKN,0.02,WeatherDisplay:10.37,2013-08-25 21:02:00,
2013-08-25 14:03:00,61.1,58.5,29.92,SW,217,0.0,0.0,91,0.00,CLR,BKN,0.02,WeatherDisplay:10.37,2013-08-25 21:03:00,
2013-08-25 14:05:00,61.1,58.1,29.92,SW,217,0.0,0.0,90,0.00,CLR,BKN,0.02,WeatherDisplay:10.37,2013-08-25 21:05:00,
2013-08-25 14:07:00,61.2,58.9,29.92,SW,217,0.0,0.0,92,0.00,CLR,BKN,0.02,WeatherDisplay:10.37,2013-08-25 21:07:00,
2013-08-25 14:08:00,61.2,58.9,29.92,SW,217,0.0,0.0,92,0.00,CLR,BKN,0.02,WeatherDisplay:10.37,2013-08-25 21:08:00,
2013-08-25 14:11:00,61.2,58.2,29.92,SW,217,0.0,1.2,90,0.00,CLR,BKN,0.02,WeatherDisplay:10.37,2013-08-25 21:11:00,
2013-08-25 14:13:00,61.2,58.2,29.92,SW,217,0.0,0.0,90,0.00,CLR,BKN,0.02,WeatherDisplay:10.37,2013-08-25 21:13:00,
2013-08-25 14:16:00,61.2,58.2,29.92,SW,217,0.0,0.0,90,0.00,CLR,BKN,0.02,WeatherDisplay:10.37,2013-08-25 21:16:00,
2013-08-25 14:18:00,61.3,58.3,29.92,SW,217,0.5,2.3,90,0.00,CLR,BKN,0.02,WeatherDisplay:10.37,2013-08-25 21:18:00,
2013-08-25 14:19:00,61.3,58.0,29.92,SW,217,0.5,2.3,89,0.00,CLR,BKN,0.02,WeatherDisplay:10.37,2013-08-25 21:19:00,
2013-08-25 14:21:00,61.3,58.3,29.92,SW,217,0.0,0.0,90,0.00,CLR,BKN,0.02,WeatherDisplay:10.37,2013-08-25 21:21:00,
2013-08-25 14:23:00,61.3,58.0,29.92,SW,217,0.0,1.2,89,0.00,CLR,BKN,0.02,WeatherDisplay:10.37,2013-08-25 21:23:00,
2013-08-25 14:24:00,61.3,58.0,29.92,SW,217,0.0,0.0,89,0.00,CLR,BKN,0.02,WeatherDisplay:10.37,2013-08-25 21:24:00,
2013-08-25 14:26:00,61.3,58.0,29.92,SW,217,0.0,0.0,89,0.00,CLR,BKN,0.02,WeatherDisplay:10.37,2013-08-25 21:26:00,
2013-08-25 14:28:00,61.3,58.0,29.92,SW,217,0.0,0.0,89,0.00,CLR,BKN,0.02,WeatherDisplay:10.37,2013-08-25 21:28:00,
2013-08-25 14:29:00,61.3,58.0,29.92,SW,217,0.0,0.0,89,0.00,CLR,BKN,0.02,WeatherDisplay:10.37,2013-08-25 21:29:00,
2013-08-25 14:30:00,61.3,58.0,29.92,SW,217,0.0,0.0,89,0.00,CLR,BKN,0.02,WeatherDisplay:10.37,2013-08-25 21:30:00,
2013-08-25 14:32:00,61.4,58.4,29.92,SW,217,0.0,0.0,90,0.00,CLR,BKN,0.02,WeatherDisplay:10.37,2013-08-25 21:32:00,
2013-08-25 14:33:00,61.4,58.4,29.92,SW,217,0.0,0.0,90,0.00,CLR,BKN,0.02,WeatherDisplay:10.37,2013-08-25 21:33:00,
2013-08-25 14:34:00,61.4,58.4,29.92,SW,217,0.0,0.0,90,0.00,CLR,BKN,0.02,WeatherDisplay:10.37,2013-08-25 21:34:00,
2013-08-25 14:35:00,61.5,58.5,29.92,SW,217,0.0,0.0,90,0.00,CLR,BKN,0.02,WeatherDisplay:10.37,2013-08-25 21:35:00,
2013-08-25 14:37:00,61.5,58.5,29.92,SW,217,0.0,0.0,90,0.00,CLR,BKN,0.02,WeatherDisplay:10.37,2013-08-25 21:37:00,
2013-08-25 14:39:00,61.5,58.5,29.92,SW,217,0.4,2.3,90,0.00,CLR,BKN,0.02,WeatherDisplay:10.37,2013-08-25 21:39:00,
2013-08-25 14:40:00,61.6,58.6,29.92,SW,217,0.1,1.2,90,0.00,CLR,BKN,0.02,WeatherDisplay:10.37,2013-08-25 21:40:00,
2013-08-25 14:42:00,61.6,58.3,29.92,SW,217,0.0,0.0,89,0.00,CLR,BKN,0.02,WeatherDisplay:10.37,2013-08-25 21:42:00,
2013-08-25 14:44:00,61.6,58.6,29.92,SW,217,0.0,0.0,90,0.00,CLR,BKN,0.02,WeatherDisplay:10.37,2013-08-25 21:44:00,
2013-08-25 14:45:00,61.6,58.6,29.92,SW,217,0.0,0.0,90,0.00,CLR,BKN,0.02,WeatherDisplay:10.37,2013-08-25 21:45:00,
2013-08-25 14:48:00,61.6,58.6,29.92,SW,217,0.0,0.0,90,0.00,CLR,BKN,0.02,WeatherDisplay:10.37,2013-08-25 21:48:00,
2013-08-25 14:49:00,61.6,58.9,29.92,SW,217,0.2,1.2,91,0.00,CLR,BKN,0.02,WeatherDisplay:10.37,2013-08-25 21:49:00,
2013-08-25 14:50:00,61.7,58.7,29.92,SW,217,0.0,1.2,90,0.00,CLR,BKN,0.02,WeatherDisplay:10.37,2013-08-25 21:50:00,
2013-08-25 14:53:00,61.6,58.3,29.92,SW,217,0.0,0.0,89,0.00,CLR,BKN,0.02,WeatherDisplay:10.37,2013-08-25 21:53:00,
2013-08-25 14:54:00,61.7,58.4,29.92,SW,217,0.0,0.0,89,0.00,CLR,BKN,0.02,WeatherDisplay:10.37,2013-08-25 21:54:00,
2013-08-25 14:55:00,61.7,58.4,29.92,SW,217,0.0,0.0,89,0.00,CLR,BKN,0.02,WeatherDisplay:10.37,2013-08-25 21:55:00,
2013-08-25 14:58:00,61.8,58.8,29.92,SW,217,0.0,0.0,90,0.00,CLR,BKN,0.02,WeatherDisplay:10.37,2013-08-25 21:58:00,
2013-08-25 14:59:00,61.8,58.8,29.92,SW,217,0.1,1.2,90,0.00,CLR,BKN,0.02,WeatherDisplay:10.37,2013-08-25 21:59:00,
2013-08-25 15:00:00,61.8,58.8,29.92,SW,217,0.0,1.2,90,0.00,CLR,BKN,0.02,WeatherDisplay:10.37,2013-08-25 22:00:00,
2013-08-25 15:01:00,61.8,58.8,29.92,SW,217,0.1,2.0,90,0.00,CLR,BKN,0.02,WeatherDisplay:10.37,2013-08-25 22:01:00,
2013-08-25 15:03:00,61.8,58.8,29.92,SW,217,1.9,3.5,90,0.00,CLR,BKN,0.02,WeatherDisplay:10.37,2013-08-25 22:03:00,
2013-08-25 15:05:00,61.9,58.9,29.92,SW,217,0.8,2.3,90,0.00,CLR,BKN,0.02,WeatherDisplay:10.37,2013-08-25 22:05:00,
2013-08-25 15:06:00,62.0,59.0,29.92,SW,217,0.1,1.2,90,0.00,CLR,BKN,0.02,WeatherDisplay:10.37,2013-08-25 22:06:00,
2013-08-25 15:08:00,62.0,59.0,29.92,SW,225,1.3,3.5,90,0.00,CLR,BKN,0.02,WeatherDisplay:10.37,2013-08-25 22:08:00,
2013-08-25 15:10:00,62.0,59.3,29.92,SW,225,0.0,0.0,91,0.00,CLR,BKN,0.02,WeatherDisplay:10.37,2013-08-25 22:10:00,
2013-08-25 15:11:00,62.0,59.3,29.92,SW,225,1.2,2.0,91,0.00,CLR,BKN,0.02,WeatherDisplay:10.37,2013-08-25 22:11:00,
2013-08-25 15:13:00,62.0,58.4,29.92,SW,225,0.0,3.5,88,0.00,CLR,BKN,0.02,WeatherDisplay:10.37,2013-08-25 22:13:00,
2013-08-25 15:15:00,62.0,58.1,29.92,SW,225,2.1,3.5,87,0.00,CLR,BKN,0.02,WeatherDisplay:10.37,2013-08-25 22:15:00,
2013-08-25 15:16:00,62.0,58.4,29.92,SW,225,1.3,3.5,88,0.00,CLR,BKN,0.02,WeatherDisplay:10.37,2013-08-25 22:16:00,
2013-08-25 15:17:00,62.0,58.4,29.92,SW,225,0.5,2.3,88,0.00,CLR,BKN,0.02,WeatherDisplay:10.37,2013-08-25 22:17:00,
2013-08-25 15:18:00,61.9,58.3,29.92,SW,225,0.0,1.2,88,0.00,CLR,BKN,0.02,WeatherDisplay:10.37,2013-08-25 22:18:00,
2013-08-25 15:20:00,62.0,58.4,29.92,SW,225,0.0,0.0,88,0.00,CLR,BKN,0.02,WeatherDisplay:10.37,2013-08-25 22:20:00,
2013-08-25 15:21:00,62.0,58.7,29.92,SW,225,0.0,0.0,89,0.00,CLR,BKN,0.02,WeatherDisplay:10.37,2013-08-25 22:21:00,
2013-08-25 15:22:00,62.0,58.4,29.91,SW,225,0.0,0.0,88,0.00,CLR,BKN,0.02,WeatherDisplay:10.37,2013-08-25 22:22:00,
2013-08-25 15:24:00,62.0,58.4,29.91,SW,225,0.0,0.0,88,0.00,CLR,BKN,0.02,WeatherDisplay:10.37,2013-08-25 22:24:00,
2013-08-25 15:26:00,62.2,58.9,29.92,SW,225,0.0,0.0,89,0.00,CLR,BKN,0.02,WeatherDisplay:10.37,2013-08-25 22:26:00,
2013-08-25 15:27:00,62.2,58.6,29.92,SW,225,0.0,0.0,88,0.00,CLR,BKN,0.02,WeatherDisplay:10.37,2013-08-25 22:27:00,
2013-08-25 15:28:00,62.3,58.7,29.92,SW,225,0.1,0.0,88,0.00,CLR,BKN,0.02,WeatherDisplay:10.37,2013-08-25 22:28:00,
2013-08-25 15:29:00,62.3,58.4,29.92,SW,225,1.0,3.5,87,0.00,CLR,BKN,0.02,WeatherDisplay:10.37,2013-08-25 22:29:00,
2013-08-25 15:31:00,62.4,58.8,29.92,SW,225,0.0,0.0,88,0.00,CLR,BKN,0.02,WeatherDisplay:10.37,2013-08-25 22:31:00,
2013-08-25 15:33:00,62.4,58.5,29.92,SW,225,0.0,0.0,87,0.00,CLR,BKN,0.02,WeatherDisplay:10.37,2013-08-25 22:33:00,
2013-08-25 15:35:00,62.5,58.9,29.92,SW,225,0.0,0.0,88,0.00,CLR,BKN,0.02,WeatherDisplay:10.37,2013-08-25 22:35:00,
2013-08-25 15:36:00,62.5,58.9,29.92,SW,225,0.0,0.0,88,0.00,CLR,BKN,0.02,WeatherDisplay:10.37,2013-08-25 22:36:00,
2013-08-25 15:38:00,62.6,59.0,29.92,SW,225,0.0,0.0,88,0.00,CLR,BKN,0.02,WeatherDisplay:10.37,2013-08-25 22:38:00,
2013-08-25 15:40:00,62.7,59.1,29.92,SW,225,0.0,0.0,88,0.00,CLR,BKN,0.02,WeatherDisplay:10.37,2013-08-25 22:40:00,
2013-08-25 15:41:00,62.7,59.1,29.92,SW,225,0.0,0.0,88,0.00,CLR,BKN,0.02,WeatherDisplay:10.37,2013-08-25 22:41:00,
2013-08-25 15:42:00,62.7,59.4,29.92,SW,225,0.0,0.0,89,0.00,CLR,BKN,0.02,WeatherDisplay:10.37,2013-08-25 22:42:00,
2013-08-25 15:43:00,62.8,59.2,29.92,SW,225,0.3,2.3,88,0.00,CLR,BKN,0.02,WeatherDisplay:10.37,2013-08-25 22:43:00,
2013-08-25 15:45:00,62.8,59.2,29.92,SW,225,0.0,0.0,88,0.00,CLR,BKN,0.02,WeatherDisplay:10.37,2013-08-25 22:45:00,
2013-08-25 15:46:00,62.8,59.2,29.92,SW,225,0.0,0.0,88,0.00,CLR,BKN,0.02,WeatherDisplay:10.37,2013-08-25 22:46:00,
2013-08-25 15:47:00,62.8,59.2,29.92,SW,225,0.0,0.0,88,0.00,CLR,BKN,0.02,WeatherDisplay:10.37,2013-08-25 22:47:00,
2013-08-25 15:48:00,62.8,59.5,29.92,SW,225,0.1,1.2,89,0.00,CLR,BKN,0.02,WeatherDisplay:10.37,2013-08-25 22:48:00,
2013-08-25 15:49:00,62.8,59.5,29.92,SW,225,0.0,0.0,89,0.00,CLR,BKN,0.02,WeatherDisplay:10.37,2013-08-25 22:49:00,
2013-08-25 15:50:00,62.8,59.2,29.92,SW,225,0.1,1.2,88,0.00,CLR,BKN,0.02,WeatherDisplay:10.37,2013-08-25 22:50:00,
2013-08-25 15:52:00,62.7,59.1,29.92,SW,225,0.0,0.0,88,0.00,CLR,BKN,0.02,WeatherDisplay:10.37,2013-08-25 22:52:00,
2013-08-25 15:54:00,62.7,59.1,29.92,SW,225,0.0,1.0,88,0.00,CLR,BKN,0.02,WeatherDisplay:10.37,2013-08-25 22:54:00,
2013-08-25 15:55:00,62.7,59.1,29.92,SW,225,0.0,0.0,88,0.00,CLR,BKN,0.02,WeatherDisplay:10.37,2013-08-25 22:55:00,
2013-08-25 15:57:00,62.8,59.2,29.92,SW,225,0.0,0.0,88,0.00,CLR,BKN,0.02,WeatherDisplay:10.37,2013-08-25 22:57:00,
2013-08-25 15:58:00,62.7,59.4,29.92,SW,225,0.0,0.0,89,0.00,CLR,BKN,0.02,WeatherDisplay:10.37,2013-08-25 22:58:00,
2013-08-25 15:59:00,62.7,59.4,29.92,SW,225,0.0,0.0,89,0.00,CLR,BKN,0.02,WeatherDisplay:10.37,2013-08-25 22:59:00,
2013-08-25 16:01:00,62.7,59.4,29.92,SW,225,0.0,0.0,89,0.00,CLR,BKN,0.02,WeatherDisplay:10.37,2013-08-25 23:01:00,
2013-08-25 16:02:00,62.7,59.1,29.92,SW,225,0.9,3.5,88,0.00,CLR,BKN,0.02,WeatherDisplay:10.37,2013-08-25 23:02:00,
2013-08-25 16:04:00,62.7,58.8,29.92,SW,225,0.3,2.3,87,0.00,CLR,BKN,0.02,WeatherDisplay:10.37,2013-08-25 23:04:00,
2013-08-25 16:05:00,62.7,58.8,29.92,SW,225,0.0,1.2,87,0.00,CLR,BKN,0.02,WeatherDisplay:10.37,2013-08-25 23:05:00,
2013-08-25 16:06:00,62.6,59.0,29.92,SW,225,0.0,0.0,88,0.00,CLR,BKN,0.02,WeatherDisplay:10.37,2013-08-25 23:06:00,
2013-08-25 16:07:00,62.6,59.0,29.92,SW,225,0.0,0.0,88,0.00,CLR,BKN,0.02,WeatherDisplay:10.37,2013-08-25 23:07:00,
2013-08-25 16:09:00,62.6,59.0,29.92,SW,225,0.0,0.0,88,0.00,CLR,BKN,0.02,WeatherDisplay:10.37,2013-08-25 23:09:00,
2013-08-25 16:10:00,62.6,59.3,29.92,SW,225,0.0,0.0,89,0.00,CLR,BKN,0.02,WeatherDisplay:10.37,2013-08-25 23:10:00,
2013-08-25 16:11:00,62.6,59.3,29.92,SW,225,0.0,0.0,89,0.00,CLR,BKN,0.02,WeatherDisplay:10.37,2013-08-25 23:11:00,
2013-08-25 16:13:00,62.6,59.3,29.92,SW,225,0.0,0.0,89,0.00,CLR,BKN,0.02,WeatherDisplay:10.37,2013-08-25 23:13:00,
2013-08-25 16:14:00,62.6,59.0,29.92,SW,225,0.0,1.2,88,0.00,CLR,BKN,0.02,WeatherDisplay:10.37,2013-08-25 23:14:00,
2013-08-25 16:15:00,62.6,59.0,29.92,SW,225,0.0,1.2,88,0.00,CLR,BKN,0.02,WeatherDisplay:10.37,2013-08-25 23:15:00,
2013-08-25 16:19:00,62.7,59.1,29.92,SW,225,0.0,0.0,88,0.00,RA,BKN,0.02,WeatherDisplay:10.37,2013-08-25 23:19:00,
2013-08-25 16:20:00,62.7,59.1,29.92,SW,225,0.0,0.0,88,0.00,RA,BKN,0.02,WeatherDisplay:10.37,2013-08-25 23:20:00,
2013-08-25 16:24:00,62.7,58.8,29.92,SW,225,0.1,1.2,87,0.00,RA,BKN,0.02,WeatherDisplay:10.37,2013-08-25 23:24:00,
2013-08-25 16:25:00,62.7,58.8,29.92,SW,225,0.0,1.2,87,0.00,RA,BKN,0.02,WeatherDisplay:10.37,2013-08-25 23:25:00,
2013-08-25 16:29:00,62.6,59.0,29.92,SW,225,0.0,0.0,88,0.00,CLR,BKN,0.02,WeatherDisplay:10.37,2013-08-25 23:29:00,
2013-08-25 16:30:00,62.7,59.1,29.92,SW,225,0.0,0.0,88,0.00,CLR,BKN,0.02,WeatherDisplay:10.37,2013-08-25 23:30:00,
2013-08-25 16:35:00,62.7,58.1,29.92,SW,225,0.0,0.0,85,0.00,CLR,BKN,0.02,WeatherDisplay:10.37,2013-08-25 23:35:00,
2013-08-25 16:36:00,62.7,58.1,29.92,SW,225,0.0,0.0,85,0.00,CLR,BKN,0.02,WeatherDisplay:10.37,2013-08-25 23:36:00,
2013-08-25 16:40:00,62.8,57.9,29.92,SW,225,0.1,1.2,84,0.00,CLR,BKN,0.02,WeatherDisplay:10.37,2013-08-25 23:40:00,
2013-08-25 16:42:00,62.8,57.9,29.92,SW,225,0.0,0.0,84,0.00,CLR,BKN,0.02,WeatherDisplay:10.37,2013-08-25 23:42:00,
2013-08-25 16:45:00,62.8,57.9,29.92,SW,225,0.1,1.2,84,0.00,CLR,BKN,0.02,WeatherDisplay:10.37,2013-08-25 23:45:00,
2013-08-25 16:47:00,62.8,57.6,29.92,SW,225,0.0,1.2,83,0.00,CLR,BKN,0.02,WeatherDisplay:10.37,2013-08-25 23:47:00,
2013-08-25 16:50:00,62.8,57.6,29.92,SW,225,0.8,2.0,83,0.00,CLR,BKN,0.02,WeatherDisplay:10.37,2013-08-25 23:50:00,
2013-08-25 16:51:00,62.8,57.6,29.92,SW,225,1.4,3.5,83,0.00,CLR,BKN,0.02,WeatherDisplay:10.37,2013-08-25 23:51:00,
2013-08-25 16:52:00,62.9,57.7,29.92,SW,225,0.5,3.5,83,0.00,CLR,BKN,0.02,WeatherDisplay:10.37,2013-08-25 23:52:00,
2013-08-25 16:55:00,62.8,57.6,29.92,SW,225,0.1,3.5,83,0.00,CLR,BKN,0.02,WeatherDisplay:10.37,2013-08-25 23:55:00,
2013-08-25 16:56:00,62.8,57.6,29.92,SW,225,0.0,1.2,83,0.00,CLR,BKN,0.02,WeatherDisplay:10.37,2013-08-25 23:56:00,
2013-08-25 16:58:00,62.9,58.0,29.92,SW,225,0.6,3.5,84,0.00,CLR,BKN,0.02,WeatherDisplay:10.37,2013-08-25 23:58:00,
2013-08-25 17:00:00,62.9,58.0,29.92,SW,225,0.0,0.0,84,0.00,CLR,BKN,0.02,WeatherDisplay:10.37,2013-08-26 00:00:00,
2013-08-25 17:01:00,62.9,58.0,29.92,SW,225,0.0,0.0,84,0.00,CLR,BKN,0.02,WeatherDisplay:10.37,2013-08-26 00:01:00,
2013-08-25 17:03:00,63.0,58.1,29.91,SW,225,0.0,1.2,84,0.00,CLR,BKN,0.02,WeatherDisplay:10.37,2013-08-26 00:03:00,
2013-08-25 17:05:00,63.0,57.8,29.92,SW,225,0.1,0.0,83,0.00,CLR,BKN,0.02,WeatherDisplay:10.37,2013-08-26 00:05:00,
2013-08-25 17:06:00,63.1,57.9,29.92,SW,225,0.0,1.2,83,0.00,CLR,BKN,0.02,WeatherDisplay:10.37,2013-08-26 00:06:00,
2013-08-25 17:08:00,63.1,57.5,29.92,SW,225,0.1,0.0,82,0.00,CLR,BKN,0.02,WeatherDisplay:10.37,2013-08-26 00:08:00,
2013-08-25 17:09:00,63.1,57.5,29.92,SW,225,2.0,2.3,82,0.00,CLR,BKN,0.02,WeatherDisplay:10.37,2013-08-26 00:09:00,
2013-08-25 17:10:00,63.1,57.5,29.92,SW,225,0.0,3.5,82,0.00,CLR,BKN,0.02,WeatherDisplay:10.37,2013-08-26 00:10:00,
2013-08-25 17:11:00,63.2,57.6,29.92,SW,225,0.0,1.2,82,0.00,CLR,BKN,0.02,WeatherDisplay:10.37,2013-08-26 00:11:00,
2013-08-25 17:13:00,63.2,57.6,29.92,SW,225,0.2,2.0,82,0.00,CLR,BKN,0.02,WeatherDisplay:10.37,2013-08-26 00:13:00,
2013-08-25 17:14:00,63.2,57.9,29.92,SW,225,1.5,3.5,83,0.00,CLR,BKN,0.02,WeatherDisplay:10.37,2013-08-26 00:14:00,
2013-08-25 17:16:00,63.2,57.6,29.92,SW,225,0.1,3.5,82,0.00,CLR,BKN,0.02,WeatherDisplay:10.37,2013-08-26 00:16:00,
2013-08-25 17:18:00,63.3,57.7,29.92,SW,225,0.0,0.0,82,0.00,CLR,BKN,0.02,WeatherDisplay:10.37,2013-08-26 00:18:00,
2013-08-25 17:19:00,63.3,57.7,29.92,SW,225,0.0,1.2,82,0.00,CLR,BKN,0.02,WeatherDisplay:10.37,2013-08-26 00:19:00,
2013-08-25 17:21:00,63.4,58.1,29.92,SW,225,0.0,0.0,83,0.00,CLR,BKN,0.02,WeatherDisplay:10.37,2013-08-26 00:21:00,
2013-08-25 17:23:00,63.5,58.6,29.92,SW,225,0.0,1.2,84,0.00,CLR,BKN,0.02,WeatherDisplay:10.37,2013-08-26 00:23:00,
2013-08-25 17:25:00,63.5,58.9,29.92,SW,225,0.4,2.0,85,0.00,CLR,BKN,0.02,WeatherDisplay:10.37,2013-08-26 00:25:00,
2013-08-25 17:26:00,63.5,58.2,29.92,SW,225,1.2,3.5,83,0.00,CLR,BKN,0.02,WeatherDisplay:10.37,2013-08-26 00:26:00,
2013-08-25 17:27:00,63.5,58.2,29.92,SW,225,1.4,3.5,83,0.00,CLR,BKN,0.02,WeatherDisplay:10.37,2013-08-26 00:27:00,
2013-08-25 17:28:00,63.5,58.2,29.92,SW,225,0.1,1.2,83,0.00,CLR,BKN,0.02,WeatherDisplay:10.37,2013-08-26 00:28:00,
2013-08-25 17:30:00,63.4,58.1,29.92,SW,225,0.6,2.3,83,0.00,CLR,BKN,0.02,WeatherDisplay:10.37,2013-08-26 00:30:00,
2013-08-25 17:31:00,63.4,58.5,29.92,SW,225,0.0,1.2,84,0.00,CLR,BKN,0.02,WeatherDisplay:10.37,2013-08-26 00:31:00,
2013-08-25 17:32:00,63.4,58.5,29.92,SW,225,0.4,1.0,84,0.00,CLR,BKN,0.02,WeatherDisplay:10.37,2013-08-26 00:32:00,
2013-08-25 17:34:00,63.4,58.5,29.92,SW,225,0.0,1.2,84,0.00,CLR,BKN,0.02,WeatherDisplay:10.37,2013-08-26 00:34:00,
2013-08-25 17:35:00,63.4,58.5,29.92,SW,225,0.0,1.2,84,0.00,CLR,BKN,0.02,WeatherDisplay:10.37,2013-08-26 00:35:00,
2013-08-25 17:36:00,63.4,58.5,29.92,SW,225,0.0,0.0,84,0.00,CLR,BKN,0.02,WeatherDisplay:10.37,2013-08-26 00:36:00,
2013-08-25 17:37:00,63.4,58.5,29.92,SW,225,0.0,0.0,84,0.00,CLR,BKN,0.02,WeatherDisplay:10.37,2013-08-26 00:37:00,
2013-08-25 17:39:00,63.4,58.5,29.92,SW,225,0.0,0.0,84,0.00,CLR,BKN,0.02,WeatherDisplay:10.37,2013-08-26 00:39:00,
2013-08-25 17:40:00,63.4,58.1,29.92,SW,225,0.0,0.0,83,0.00,CLR,BKN,0.02,WeatherDisplay:10.37,2013-08-26 00:40:00,
2013-08-25 17:41:00,63.5,58.2,29.92,SW,225,0.0,0.0,83,0.00,CLR,BKN,0.02,WeatherDisplay:10.37,2013-08-26 00:41:00,
2013-08-25 17:42:00,63.5,58.6,29.92,SW,225,0.0,0.0,84,0.00,CLR,BKN,0.02,WeatherDisplay:10.37,2013-08-26 00:42:00,
2013-08-25 17:44:00,63.5,58.2,29.92,SW,225,0.0,0.0,83,0.00,CLR,BKN,0.02,WeatherDisplay:10.37,2013-08-26 00:44:00,
2013-08-25 17:45:00,63.6,58.3,29.92,SW,225,0.0,0.0,83,0.00,CLR,BKN,0.02,WeatherDisplay:10.37,2013-08-26 00:45:00,
2013-08-25 17:47:00,63.6,58.7,29.92,SW,225,0.2,1.2,84,0.00,CLR,BKN,0.02,WeatherDisplay:10.37,2013-08-26 00:47:00,
2013-08-25 17:49:00,63.6,57.7,29.92,SW,225,0.0,0.0,81,0.00,CLR,BKN,0.02,WeatherDisplay:10.37,2013-08-26 00:49:00,
2013-08-25 17:51:00,63.6,58.0,29.92,SW,225,0.0,0.0,82,0.00,CLR,BKN,0.02,WeatherDisplay:10.37,2013-08-26 00:51:00,
2013-08-25 17:52:00,63.6,58.0,29.92,SW,225,0.0,0.0,82,0.00,CLR,BKN,0.02,WeatherDisplay:10.37,2013-08-26 00:52:00,
2013-08-25 17:53:00,63.6,58.0,29.92,SW,225,0.0,0.0,82,0.00,CLR,BKN,0.02,WeatherDisplay:10.37,2013-08-26 00:53:00,
2013-08-25 17:54:00,63.7,57.8,29.92,SW,225,0.0,0.0,81,0.00,CLR,BKN,0.02,WeatherDisplay:10.37,2013-08-26 00:54:00,
2013-08-25 17:56:00,63.7,58.4,29.92,SW,225,0.0,0.0,83,0.00,CLR,BKN,0.02,WeatherDisplay:10.37,2013-08-26 00:56:00,
2013-08-25 17:57:00,63.7,58.4,29.92,SW,225,0.0,0.0,83,0.00,CLR,BKN,0.02,WeatherDisplay:10.37,2013-08-26 00:57:00,
2013-08-25 17:58:00,63.7,58.4,29.92,SW,225,0.0,0.0,83,0.00,CLR,BKN,0.02,WeatherDisplay:10.37,2013-08-26 00:58:00,
2013-08-25 17:59:00,63.8,58.2,29.92,SW,225,0.0,0.0,82,0.00,CLR,BKN,0.02,WeatherDisplay:10.37,2013-08-26 00:59:00,
2013-08-25 18:01:00,63.8,57.9,29.91,SW,225,0.0,0.0,81,0.00,CLR,BKN,0.02,WeatherDisplay:10.37,2013-08-26 01:01:00,
2013-08-25 18:03:00,63.8,58.2,29.91,SW,225,0.0,0.0,82,0.00,CLR,BKN,0.02,WeatherDisplay:10.37,2013-08-26 01:03:00,
2013-08-25 18:05:00,63.8,58.2,29.91,SW,225,0.0,1.2,82,0.00,CLR,BKN,0.02,WeatherDisplay:10.37,2013-08-26 01:05:00,
2013-08-25 18:06:00,63.8,58.2,29.91,SW,225,0.0,1.2,82,0.00,CLR,BKN,0.02,WeatherDisplay:10.37,2013-08-26 01:06:00,
2013-08-25 18:08:00,63.9,58.6,29.91,SW,225,0.0,0.0,83,0.00,CLR,BKN,0.02,WeatherDisplay:10.37,2013-08-26 01:08:00,
2013-08-25 18:09:00,63.9,58.6,29.91,SW,225,0.0,0.0,83,0.00,CLR,BKN,0.02,WeatherDisplay:10.37,2013-08-26 01:09:00,
2013-08-25 18:11:00,63.9,58.3,29.92,SW,225,0.0,0.0,82,0.00,CLR,BKN,0.02,WeatherDisplay:10.37,2013-08-26 01:11:00,
2013-08-25 18:13:00,63.9,58.3,29.92,SW,225,0.0,0.0,82,0.00,CLR,BKN,0.02,WeatherDisplay:10.37,2013-08-26 01:13:00,
2013-08-25 18:14:00,64.0,58.4,29.91,SW,225,0.0,0.0,82,0.00,CLR,BKN,0.02,WeatherDisplay:10.37,2013-08-26 01:14:00,
2013-08-25 18:16:00,63.9,58.3,29.91,SW,225,0.0,0.0,82,0.00,CLR,BKN,0.02,WeatherDisplay:10.37,2013-08-26 01:16:00,
2013-08-25 18:18:00,64.0,58.4,29.91,SW,225,0.0,0.0,82,0.00,CLR,BKN,0.02,WeatherDisplay:10.37,2013-08-26 01:18:00,
2013-08-25 18:20:00,64.0,58.7,29.91,SW,225,0.0,1.2,83,0.00,CLR,BKN,0.02,WeatherDisplay:10.37,2013-08-26 01:20:00,
2013-08-25 18:21:00,64.0,58.7,29.91,SW,225,0.0,1.2,83,0.00,CLR,BKN,0.02,WeatherDisplay:10.37,2013-08-26 01:21:00,
2013-08-25 18:23:00,64.0,58.4,29.91,SW,225,0.0,0.0,82,0.00,CLR,BKN,0.02,WeatherDisplay:10.37,2013-08-26 01:23:00,
2013-08-25 18:24:00,64.0,58.4,29.91,SW,225,0.0,0.0,82,0.00,CLR,BKN,0.02,WeatherDisplay:10.37,2013-08-26 01:24:00,
2013-08-25 18:26:00,64.0,58.4,29.91,SW,225,0.1,1.2,82,0.00,CLR,BKN,0.02,WeatherDisplay:10.37,2013-08-26 01:26:00,
2013-08-25 18:28:00,63.9,58.3,29.91,SW,225,0.1,1.2,82,0.00,CLR,BKN,0.02,WeatherDisplay:10.37,2013-08-26 01:28:00,
2013-08-25 18:29:00,63.9,58.3,29.91,SW,225,0.0,1.2,82,0.00,CLR,BKN,0.02,WeatherDisplay:10.37,2013-08-26 01:29:00,
2013-08-25 18:31:00,63.9,58.3,29.91,SW,225,0.0,0.0,82,0.00,CLR,BKN,0.02,WeatherDisplay:10.37,2013-08-26 01:31:00,
2013-08-25 18:33:00,63.9,58.3,29.91,SW,225,0.0,0.0,82,0.00,CLR,BKN,0.02,WeatherDisplay:10.37,2013-08-26 01:33:00,
2013-08-25 18:34:00,63.9,58.3,29.91,SW,225,0.0,0.0,82,0.00,CLR,BKN,0.02,WeatherDisplay:10.37,2013-08-26 01:34:00,
2013-08-25 18:36:00,63.8,58.2,29.91,SW,225,0.0,0.0,82,0.00,CLR,BKN,0.02,WeatherDisplay:10.37,2013-08-26 01:36:00,
2013-08-25 18:37:00,63.8,58.5,29.91,SW,225,0.0,0.0,83,0.00,CLR,BKN,0.02,WeatherDisplay:10.37,2013-08-26 01:37:00,
2013-08-25 18:38:00,63.8,58.2,29.91,SW,225,0.0,1.2,82,0.00,CLR,BKN,0.02,WeatherDisplay:10.37,2013-08-26 01:38:00,
2013-08-25 18:39:00,63.8,58.2,29.91,SW,225,0.0,0.0,82,0.00,CLR,BKN,0.02,WeatherDisplay:10.37,2013-08-26 01:39:00,
2013-08-25 18:41:00,63.8,58.2,29.91,SW,225,0.0,0.0,82,0.00,CLR,BKN,0.02,WeatherDisplay:10.37,2013-08-26 01:41:00,
2013-08-25 18:42:00,63.7,58.4,29.91,SW,225,0.0,0.0,83,0.00,CLR,BKN,0.02,WeatherDisplay:10.37,2013-08-26 01:42:00,
2013-08-25 18:43:00,63.7,58.4,29.91,SW,225,0.0,0.0,83,0.00,CLR,BKN,0.02,WeatherDisplay:10.37,2013-08-26 01:43:00,
2013-08-25 18:44:00,63.7,58.4,29.91,SW,225,0.0,0.0,83,0.00,CLR,BKN,0.02,WeatherDisplay:10.37,2013-08-26 01:44:00,
2013-08-25 18:47:00,63.7,58.4,29.91,SW,225,0.0,0.0,83,0.00,CLR,BKN,0.02,WeatherDisplay:10.37,2013-08-26 01:47:00,
2013-08-25 18:48:00,63.7,58.4,29.91,SW,225,0.0,0.0,83,0.00,CLR,BKN,0.02,WeatherDisplay:10.37,2013-08-26 01:48:00,
2013-08-25 18:49:00,63.7,58.4,29.91,SW,225,0.0,1.2,83,0.00,CLR,BKN,0.02,WeatherDisplay:10.37,2013-08-26 01:49:00,
2013-08-25 18:50:00,63.6,58.7,29.91,SW,225,0.0,0.0,84,0.00,CLR,BKN,0.02,WeatherDisplay:10.37,2013-08-26 01:50:00,
2013-08-25 18:52:00,63.6,58.3,29.92,SW,225,0.0,0.0,83,0.00,CLR,BKN,0.02,WeatherDisplay:10.37,2013-08-26 01:52:00,
2013-08-25 18:53:00,63.6,58.3,29.91,SW,225,0.0,0.0,83,0.00,CLR,BKN,0.02,WeatherDisplay:10.37,2013-08-26 01:53:00,
2013-08-25 18:54:00,63.7,58.4,29.91,SW,225,0.0,0.0,83,0.00,CLR,BKN,0.02,WeatherDisplay:10.37,2013-08-26 01:54:00,
2013-08-25 18:55:00,63.6,58.3,29.91,SW,225,0.0,0.0,83,0.00,CLR,BKN,0.02,WeatherDisplay:10.37,2013-08-26 01:55:00,
2013-08-25 18:57:00,63.6,58.3,29.91,SW,225,0.0,0.0,83,0.00,CLR,BKN,0.02,WeatherDisplay:10.37,2013-08-26 01:57:00,
2013-08-25 18:58:00,63.6,58.7,29.91,SW,225,0.0,0.0,84,0.00,CLR,BKN,0.02,WeatherDisplay:10.37,2013-08-26 01:58:00,
2013-08-25 18:59:00,63.6,58.7,29.91,SW,225,0.0,0.0,84,0.00,CLR,BKN,0.02,WeatherDisplay:10.37,2013-08-26 01:59:00,
2013-08-25 19:00:00,63.6,58.3,29.91,SW,225,0.0,0.0,83,0.00,CLR,BKN,0.02,WeatherDisplay:10.37,2013-08-26 02:00:00,
2013-08-25 19:03:00,63.6,58.3,29.91,SW,225,0.0,0.0,83,0.00,CLR,BKN,0.02,WeatherDisplay:10.37,2013-08-26 02:03:00,
2013-08-25 19:04:00,63.6,58.7,29.91,SW,225,0.0,0.0,84,0.00,CLR,BKN,0.02,WeatherDisplay:10.37,2013-08-26 02:04:00,
2013-08-25 19:05:00,63.6,58.7,29.92,SW,225,0.0,0.0,84,0.00,CLR,BKN,0.02,WeatherDisplay:10.37,2013-08-26 02:05:00,
2013-08-25 19:08:00,63.6,58.7,29.91,SW,225,0.0,0.0,84,0.00,CLR,BKN,0.02,WeatherDisplay:10.37,2013-08-26 02:08:00,
2013-08-25 19:09:00,63.6,58.7,29.92,SW,225,0.0,0.0,84,0.00,CLR,BKN,0.02,WeatherDisplay:10.37,2013-08-26 02:09:00,
2013-08-25 19:11:00,63.6,58.7,29.92,SW,225,0.0,0.0,84,0.00,CLR,BKN,0.02,WeatherDisplay:10.37,2013-08-26 02:11:00,
2013-08-25 19:13:00,63.6,58.7,29.92,SW,225,0.0,0.0,84,0.00,CLR,BKN,0.02,WeatherDisplay:10.37,2013-08-26 02:13:00,
2013-08-25 19:14:00,63.6,58.7,29.92,SW,225,0.0,0.0,84,0.00,CLR,BKN,0.02,WeatherDisplay:10.37,2013-08-26 02:14:00,
2013-08-25 19:17:00,63.5,58.6,29.92,SW,225,0.0,0.0,84,0.00,CLR,BKN,0.02,WeatherDisplay:10.37,2013-08-26 02:17:00,
2013-08-25 19:18:00,63.5,58.6,29.92,SW,225,0.0,0.0,84,0.00,CLR,BKN,0.02,WeatherDisplay:10.37,2013-08-26 02:18:00,
2013-08-25 19:19:00,63.5,58.6,29.92,SW,225,0.0,0.0,84,0.00,CLR,BKN,0.02,WeatherDisplay:10.37,2013-08-26 02:19:00,
2013-08-25 19:20:00,63.5,58.6,29.92,SW,225,0.0,1.2,84,0.00,CLR,BKN,0.02,WeatherDisplay:10.37,2013-08-26 02:20:00,
2013-08-25 19:22:00,63.5,58.6,29.92,SW,225,0.0,0.0,84,0.00,CLR,BKN,0.02,WeatherDisplay:10.37,2013-08-26 02:22:00,
2013-08-25 19:23:00,63.5,58.6,29.92,SW,225,0.0,0.0,84,0.00,CLR,BKN,0.02,WeatherDisplay:10.37,2013-08-26 02:23:00,
2013-08-25 19:24:00,63.5,58.6,29.92,SW,225,0.0,0.0,84,0.00,CLR,BKN,0.02,WeatherDisplay:10.37,2013-08-26 02:24:00,
2013-08-25 19:25:00,63.5,58.2,29.92,SW,225,0.0,0.0,83,0.00,CLR,BKN,0.02,WeatherDisplay:10.37,2013-08-26 02:25:00,
2013-08-25 19:27:00,63.5,58.6,29.92,SW,225,0.0,1.2,84,0.00,CLR,BKN,0.02,WeatherDisplay:10.37,2013-08-26 02:27:00,
2013-08-25 19:28:00,63.5,58.6,29.92,SW,225,0.0,1.2,84,0.00,CLR,BKN,0.02,WeatherDisplay:10.37,2013-08-26 02:28:00,
2013-08-25 19:29:00,63.4,58.1,29.92,SW,225,0.0,0.0,83,0.00,CLR,BKN,0.02,WeatherDisplay:10.37,2013-08-26 02:29:00,
2013-08-25 19:30:00,63.5,58.2,29.92,SW,225,0.0,0.0,83,0.00,CLR,BKN,0.02,WeatherDisplay:10.37,2013-08-26 02:30:00,
2013-08-25 19:32:00,63.5,58.2,29.92,SW,225,0.0,1.2,83,0.00,CLR,BKN,0.02,WeatherDisplay:10.37,2013-08-26 02:32:00,
2013-08-25 19:33:00,63.4,58.1,29.92,SW,225,0.0,0.0,83,0.00,CLR,BKN,0.02,WeatherDisplay:10.37,2013-08-26 02:33:00,
2013-08-25 19:35:00,63.4,58.1,29.91,SW,225,0.2,0.0,83,0.00,CLR,BKN,0.02,WeatherDisplay:10.37,2013-08-26 02:35:00,
2013-08-25 19:37:00,63.4,58.5,29.92,SW,225,2.2,3.5,84,0.00,CLR,BKN,0.02,WeatherDisplay:10.37,2013-08-26 02:37:00,
2013-08-25 19:38:00,63.4,58.5,29.92,SW,225,2.2,3.5,84,0.00,CLR,BKN,0.02,WeatherDisplay:10.37,2013-08-26 02:38:00,
2013-08-25 19:40:00,63.4,58.5,29.92,SW,225,1.6,3.5,84,0.00,CLR,BKN,0.02,WeatherDisplay:10.37,2013-08-26 02:40:00,
2013-08-25 19:42:00,63.4,58.5,29.92,SW,225,0.0,1.0,84,0.00,CLR,BKN,0.02,WeatherDisplay:10.37,2013-08-26 02:42:00,
2013-08-25 19:44:00,63.4,58.5,29.92,SW,225,1.5,2.3,84,0.00,CLR,BKN,0.02,WeatherDisplay:10.37,2013-08-26 02:44:00,
2013-08-25 19:45:00,63.4,58.5,29.92,SW,225,0.4,2.3,84,0.00,CLR,BKN,0.02,WeatherDisplay:10.37,2013-08-26 02:45:00,
2013-08-25 19:46:00,63.4,58.5,29.92,SW,225,0.1,2.3,84,0.00,CLR,BKN,0.02,WeatherDisplay:10.37,2013-08-26 02:46:00,
2013-08-25 19:48:00,63.4,58.5,29.92,SW,225,0.0,0.0,84,0.00,CLR,BKN,0.02,WeatherDisplay:10.37,2013-08-26 02:48:00,
2013-08-25 19:49:00,63.4,58.5,29.92,SW,225,0.0,1.2,84,0.00,CLR,BKN,0.02,WeatherDisplay:10.37,2013-08-26 02:49:00,
2013-08-25 19:51:00,63.4,58.5,29.92,SW,225,1.8,3.5,84,0.00,CLR,BKN,0.02,WeatherDisplay:10.37,2013-08-26 02:51:00,
2013-08-25 19:54:00,63.3,58.4,29.92,SW,225,0.3,2.3,84,0.00,CLR,BKN,0.02,WeatherDisplay:10.37,2013-08-26 02:54:00,
2013-08-25 19:56:00,63.3,58.4,29.92,SW,225,1.7,3.5,84,0.00,CLR,BKN,0.02,WeatherDisplay:10.37,2013-08-26 02:56:00,
2013-08-25 19:59:00,63.3,58.0,29.91,SW,225,0.0,1.2,83,0.00,CLR,BKN,0.02,WeatherDisplay:10.37,2013-08-26 02:59:00,
2013-08-25 20:01:00,63.3,58.0,29.91,SW,225,0.8,2.3,83,0.00,CLR,BKN,0.02,WeatherDisplay:10.37,2013-08-26 03:01:00,
2013-08-25 20:04:00,63.3,57.7,29.91,SW,225,0.0,0.0,82,0.00,CLR,BKN,0.02,WeatherDisplay:10.37,2013-08-26 03:04:00,
2013-08-25 20:05:00,63.3,57.7,29.91,SW,225,0.0,0.0,82,0.00,CLR,BKN,0.02,WeatherDisplay:10.37,2013-08-26 03:05:00,
2013-08-25 20:06:00,63.3,57.7,29.91,SW,225,0.1,1.2,82,0.00,CLR,BKN,0.02,WeatherDisplay:10.37,2013-08-26 03:06:00,
2013-08-25 20:07:00,63.3,57.7,29.91,SW,225,0.0,1.2,82,0.00,CLR,BKN,0.02,WeatherDisplay:10.37,2013-08-26 03:07:00,
2013-08-25 20:10:00,63.3,57.7,29.91,SW,225,0.0,0.0,82,0.00,CLR,BKN,0.02,WeatherDisplay:10.37,2013-08-26 03:10:00,
2013-08-25 20:11:00,63.3,57.7,29.91,SW,225,0.0,0.0,82,0.00,CLR,BKN,0.02,WeatherDisplay:10.37,2013-08-26 03:11:00,
2013-08-25 20:12:00,63.3,57.7,29.91,SW,225,0.0,0.0,82,0.00,CLR,BKN,0.02,WeatherDisplay:10.37,2013-08-26 03:12:00,
2013-08-25 20:15:00,63.3,58.0,29.91,SW,225,0.6,3.5,83,0.00,CLR,BKN,0.02,WeatherDisplay:10.37,2013-08-26 03:15:00,
2013-08-25 20:17:00,63.2,57.6,29.91,SW,225,0.2,1.2,82,0.00,CLR,BKN,0.02,WeatherDisplay:10.37,2013-08-26 03:17:00,
2013-08-25 20:20:00,63.2,57.6,29.91,SW,225,0.0,1.2,82,0.00,CLR,BKN,0.02,WeatherDisplay:10.37,2013-08-26 03:20:00,
2013-08-25 20:22:00,63.2,57.6,29.91,SW,225,0.0,0.0,82,0.00,CLR,BKN,0.02,WeatherDisplay:10.37,2013-08-26 03:22:00,
2013-08-25 20:23:00,63.2,57.6,29.91,SW,225,0.0,0.0,82,0.00,CLR,BKN,0.02,WeatherDisplay:10.37,2013-08-26 03:23:00,
2013-08-25 20:25:00,63.3,58.0,29.91,SW,225,0.0,0.0,83,0.00,CLR,BKN,0.02,WeatherDisplay:10.37,2013-08-26 03:25:00,
2013-08-25 20:27:00,63.3,58.0,29.91,SW,225,0.0,0.0,83,0.00,CLR,BKN,0.02,WeatherDisplay:10.37,2013-08-26 03:27:00,
2013-08-25 20:28:00,63.3,58.0,29.91,SW,225,0.0,0.0,83,0.00,CLR,BKN,0.02,WeatherDisplay:10.37,2013-08-26 03:28:00,
2013-08-25 20:31:00,63.3,58.0,29.91,SW,225,0.0,1.2,83,0.00,CLR,BKN,0.02,WeatherDisplay:10.37,2013-08-26 03:31:00,
2013-08-25 20:33:00,63.3,58.0,29.91,SW,225,0.0,0.0,83,0.00,CLR,BKN,0.02,WeatherDisplay:10.37,2013-08-26 03:33:00,
2013-08-25 20:36:00,63.3,58.0,29.91,SW,225,0.1,0.0,83,0.00,CLR,BKN,0.02,WeatherDisplay:10.37,2013-08-26 03:36:00,
2013-08-25 20:38:00,63.3,58.0,29.91,SW,225,0.2,2.0,83,0.00,CLR,BKN,0.02,WeatherDisplay:10.37,2013-08-26 03:38:00,
2013-08-25 20:41:00,63.2,58.3,29.91,SW,225,0.0,0.0,84,0.00,CLR,BKN,0.02,WeatherDisplay:10.37,2013-08-26 03:41:00,
2013-08-25 20:42:00,63.2,58.3,29.91,SW,225,0.0,2.0,84,0.00,CLR,BKN,0.02,WeatherDisplay:10.37,2013-08-26 03:42:00,
2013-08-25 20:43:00,63.3,58.4,29.91,SW,225,0.3,2.3,84,0.00,CLR,BKN,0.02,WeatherDisplay:10.37,2013-08-26 03:43:00,
2013-08-25 20:47:00,63.2,58.6,29.91,SW,225,0.0,1.2,85,0.00,CLR,BKN,0.02,WeatherDisplay:10.37,2013-08-26 03:47:00,
2013-08-25 20:48:00,63.2,58.6,29.91,SW,225,0.0,0.0,85,0.00,CLR,BKN,0.02,WeatherDisplay:10.37,2013-08-26 03:48:00,
2013-08-25 20:49:00,63.2,58.6,29.91,SW,225,0.1,1.2,85,0.00,CLR,BKN,0.02,WeatherDisplay:10.37,2013-08-26 03:49:00,
2013-08-25 20:52:00,63.2,58.6,29.91,SW,225,0.0,0.0,85,0.00,CLR,BKN,0.02,WeatherDisplay:10.37,2013-08-26 03:52:00,
2013-08-25 20:53:00,63.2,58.6,29.91,SW,225,0.1,1.2,85,0.00,CLR,BKN,0.02,WeatherDisplay:10.37,2013-08-26 03:53:00,
2013-08-25 20:54:00,63.2,58.6,29.91,SW,225,0.0,0.0,85,0.00,CLR,BKN,0.02,WeatherDisplay:10.37,2013-08-26 03:54:00,
2013-08-25 20:55:00,63.2,58.6,29.91,SW,225,0.0,1.2,85,0.00,CLR,BKN,0.02,WeatherDisplay:10.37,2013-08-26 03:55:00,
2013-08-25 20:57:00,63.2,58.6,29.91,SW,225,0.1,1.2,85,0.00,CLR,BKN,0.02,WeatherDisplay:10.37,2013-08-26 03:57:00,
2013-08-25 20:58:00,63.2,58.6,29.91,SW,225,1.2,2.3,85,0.00,CLR,BKN,0.02,WeatherDisplay:10.37,2013-08-26 03:58:00,
2013-08-25 20:59:00,63.2,58.6,29.91,SW,225,1.9,2.3,85,0.00,CLR,BKN,0.02,WeatherDisplay:10.37,2013-08-26 03:59:00,
2013-08-25 21:00:00,63.2,58.9,29.91,SW,225,0.4,2.3,86,0.00,CLR,BKN,0.02,WeatherDisplay:10.37,2013-08-26 04:00:00,
2013-08-25 21:01:00,63.2,58.9,29.91,SW,225,0.8,2.3,86,0.00,CLR,BKN,0.02,WeatherDisplay:10.37,2013-08-26 04:01:00,
2013-08-25 21:06:00,63.1,58.8,29.92,SW,225,1.1,3.5,86,0.00,CLR,BKN,0.02,WeatherDisplay:10.37,2013-08-26 04:06:00,
2013-08-25 21:11:00,63.1,58.8,29.92,SW,225,0.1,1.2,86,0.00,CLR,BKN,0.02,WeatherDisplay:10.37,2013-08-26 04:11:00,
2013-08-25 21:16:00,63.0,58.7,29.92,SW,225,0.6,2.3,86,0.00,CLR,BKN,0.02,WeatherDisplay:10.37,2013-08-26 04:16:00,
2013-08-25 21:17:00,63.0,58.7,29.92,SW,225,0.4,1.2,86,0.00,CLR,BKN,0.02,WeatherDisplay:10.37,2013-08-26 04:17:00,
2013-08-25 21:19:00,62.9,58.6,29.92,SW,225,0.1,2.3,86,0.00,CLR,BKN,0.02,WeatherDisplay:10.37,2013-08-26 04:19:00,
2013-08-25 21:21:00,62.9,58.6,29.92,SW,225,0.7,2.3,86,0.00,CLR,BKN,0.02,WeatherDisplay:10.37,2013-08-26 04:21:00,
2013-08-25 21:22:00,62.9,58.6,29.92,SW,225,0.2,2.3,86,0.00,CLR,BKN,0.02,WeatherDisplay:10.37,2013-08-26 04:22:00,
2013-08-25 21:23:00,62.9,58.6,29.92,SW,225,0.7,1.2,86,0.00,CLR,BKN,0.02,WeatherDisplay:10.37,2013-08-26 04:23:00,
2013-08-25 21:24:00,62.9,58.6,29.92,SW,225,0.9,2.3,86,0.00,CLR,BKN,0.02,WeatherDisplay:10.37,2013-08-26 04:24:00,
2013-08-25 21:27:00,62.9,58.6,29.92,SW,225,0.3,1.2,86,0.00,CLR,BKN,0.02,WeatherDisplay:10.37,2013-08-26 04:27:00,
2013-08-25 21:28:00,62.8,58.5,29.92,SW,225,0.3,1.2,86,0.00,CLR,BKN,0.02,WeatherDisplay:10.37,2013-08-26 04:28:00,
2013-08-25 21:29:00,62.8,58.5,29.92,SW,225,0.2,1.2,86,0.00,CLR,BKN,0.02,WeatherDisplay:10.37,2013-08-26 04:29:00,
2013-08-25 21:32:00,62.8,58.9,29.92,SW,225,0.6,2.3,87,0.00,CLR,BKN,0.02,WeatherDisplay:10.37,2013-08-26 04:32:00,
2013-08-25 21:33:00,62.8,58.9,29.92,SW,225,0.8,1.2,87,0.00,CLR,BKN,0.02,WeatherDisplay:10.37,2013-08-26 04:33:00,
2013-08-25 21:34:00,62.8,58.9,29.92,SW,225,0.3,2.3,87,0.00,CLR,BKN,0.02,WeatherDisplay:10.37,2013-08-26 04:34:00,
2013-08-25 21:37:00,62.7,58.8,29.92,SW,225,0.6,1.2,87,0.00,CLR,BKN,0.02,WeatherDisplay:10.37,2013-08-26 04:37:00,
2013-08-25 21:38:00,62.7,58.8,29.92,SW,225,0.7,2.3,87,0.00,CLR,BKN,0.02,WeatherDisplay:10.37,2013-08-26 04:38:00,
2013-08-25 21:39:00,62.7,58.8,29.92,SW,225,0.9,2.3,87,0.00,CLR,BKN,0.02,WeatherDisplay:10.37,2013-08-26 04:39:00,
2013-08-25 21:42:00,62.7,58.8,29.92,SW,225,0.2,2.0,87,0.00,CLR,BKN,0.02,WeatherDisplay:10.37,2013-08-26 04:42:00,
2013-08-25 21:43:00,62.7,58.8,29.92,SW,225,1.3,2.3,87,0.00,CLR,BKN,0.02,WeatherDisplay:10.37,2013-08-26 04:43:00,
2013-08-25 21:44:00,62.7,59.1,29.92,SW,225,1.5,3.5,88,0.00,CLR,BKN,0.02,WeatherDisplay:10.37,2013-08-26 04:44:00,
2013-08-25 21:45:00,62.7,59.1,29.92,SW,225,1.0,3.0,88,0.00,CLR,BKN,0.02,WeatherDisplay:10.37,2013-08-26 04:45:00,
2013-08-25 21:47:00,62.6,59.0,29.92,SW,226,2.7,3.5,88,0.00,CLR,BKN,0.02,WeatherDisplay:10.37,2013-08-26 04:47:00,
2013-08-25 21:48:00,62.6,59.0,29.92,SW,229,2.3,3.5,88,0.00,CLR,BKN,0.02,WeatherDisplay:10.37,2013-08-26 04:48:00,
2013-08-25 21:49:00,62.6,59.0,29.92,SW,229,2.0,3.5,88,0.00,CLR,BKN,0.02,WeatherDisplay:10.37,2013-08-26 04:49:00,
2013-08-25 21:50:00,62.6,59.0,29.92,SW,229,0.7,3.5,88,0.00,CLR,BKN,0.02,WeatherDisplay:10.37,2013-08-26 04:50:00,
2013-08-25 21:52:00,62.5,59.2,29.92,SW,229,0.0,1.2,89,0.00,CLR,BKN,0.02,WeatherDisplay:10.37,2013-08-26 04:52:00,
2013-08-25 21:54:00,62.5,59.2,29.92,SW,229,0.3,2.3,89,0.00,CLR,BKN,0.02,WeatherDisplay:10.37,2013-08-26 04:54:00,
2013-08-25 21:55:00,62.4,59.1,29.92,SW,229,0.0,0.0,89,0.00,CLR,BKN,0.02,WeatherDisplay:10.37,2013-08-26 04:55:00,
2013-08-25 21:57:00,62.4,59.4,29.92,SW,229,0.0,0.0,90,0.00,CLR,BKN,0.02,WeatherDisplay:10.37,2013-08-26 04:57:00,
2013-08-25 21:58:00,62.4,59.4,29.92,SW,229,0.0,0.0,90,0.00,CLR,BKN,0.02,WeatherDisplay:10.37,2013-08-26 04:58:00,
2013-08-25 21:59:00,62.4,59.4,29.92,SW,229,0.0,0.0,90,0.00,CLR,BKN,0.02,WeatherDisplay:10.37,2013-08-26 04:59:00,
2013-08-25 22:00:00,62.3,59.3,29.92,SW,229,0.0,0.0,90,0.00,CLR,BKN,0.02,WeatherDisplay:10.37,2013-08-26 05:00:00,
2013-08-25 22:02:00,62.3,59.6,29.92,SW,229,0.0,0.0,91,0.00,CLR,BKN,0.02,WeatherDisplay:10.37,2013-08-26 05:02:00,
2013-08-25 22:03:00,62.3,59.6,29.92,SW,229,0.0,0.0,91,0.00,CLR,BKN,0.02,WeatherDisplay:10.37,2013-08-26 05:03:00,
2013-08-25 22:04:00,62.2,59.5,29.92,SW,229,0.0,0.0,91,0.00,CLR,BKN,0.02,WeatherDisplay:10.37,2013-08-26 05:04:00,
2013-08-25 22:05:00,62.2,59.5,29.92,SW,229,0.0,0.0,91,0.00,CLR,BKN,0.02,WeatherDisplay:10.37,2013-08-26 05:05:00,
2013-08-25 22:08:00,62.2,59.8,29.92,SW,229,0.0,0.0,92,0.00,CLR,BKN,0.02,WeatherDisplay:10.37,2013-08-26 05:08:00,
2013-08-25 22:09:00,62.1,59.7,29.92,SW,229,0.0,0.0,92,0.00,CLR,BKN,0.02,WeatherDisplay:10.37,2013-08-26 05:09:00,
2013-08-25 22:10:00,62.1,59.7,29.92,SW,229,0.0,0.0,92,0.00,CLR,BKN,0.02,WeatherDisplay:10.37,2013-08-26 05:10:00,
2013-08-25 22:13:00,62.0,59.6,29.92,SW,229,0.0,0.0,92,0.00,CLR,BKN,0.02,WeatherDisplay:10.37,2013-08-26 05:13:00,
2013-08-25 22:14:00,61.9,59.5,29.92,SW,229,0.0,1.2,92,0.00,CLR,BKN,0.02,WeatherDisplay:10.37,2013-08-26 05:14:00,
2013-08-25 22:15:00,61.9,59.5,29.92,SW,229,0.0,0.0,92,0.00,CLR,BKN,0.02,WeatherDisplay:10.37,2013-08-26 05:15:00,
2013-08-25 22:18:00,61.8,59.1,29.92,SW,229,0.0,0.0,91,0.00,CLR,BKN,0.02,WeatherDisplay:10.37,2013-08-26 05:18:00,
2013-08-25 22:19:00,61.7,59.0,29.92,SW,229,0.0,0.0,91,0.00,CLR,BKN,0.02,WeatherDisplay:10.37,2013-08-26 05:19:00,
2013-08-25 22:20:00,61.7,59.0,29.92,SW,229,0.0,0.0,91,0.00,CLR,BKN,0.02,WeatherDisplay:10.37,2013-08-26 05:20:00,
2013-08-25 22:23:00,61.6,59.3,29.92,SW,229,0.0,0.0,92,0.00,CLR,BKN,0.02,WeatherDisplay:10.37,2013-08-26 05:23:00,
2013-08-25 22:24:00,61.6,59.3,29.92,SW,229,0.0,1.2,92,0.00,CLR,BKN,0.02,WeatherDisplay:10.37,2013-08-26 05:24:00,
2013-08-25 22:25:00,61.6,59.3,29.93,SW,229,0.0,0.0,92,0.00,CLR,BKN,0.02,WeatherDisplay:10.37,2013-08-26 05:25:00,
2013-08-25 22:29:00,61.4,59.1,29.93,SW,229,0.0,0.0,92,0.00,CLR,BKN,0.02,WeatherDisplay:10.37,2013-08-26 05:29:00,
2013-08-25 22:30:00,61.4,59.1,29.93,SW,229,0.0,0.0,92,0.00,CLR,BKN,0.02,WeatherDisplay:10.37,2013-08-26 05:30:00,
2013-08-25 22:34:00,61.2,58.9,29.93,SW,229,0.0,0.0,92,0.00,CLR,BKN,0.02,WeatherDisplay:10.37,2013-08-26 05:34:00,
2013-08-25 22:35:00,61.2,58.9,29.93,SW,229,0.0,0.0,92,0.00,CLR,BKN,0.02,WeatherDisplay:10.37,2013-08-26 05:35:00,
2013-08-25 22:39:00,61.0,58.7,29.92,SW,229,0.0,0.0,92,0.00,CLR,BKN,0.02,WeatherDisplay:10.37,2013-08-26 05:39:00,
2013-08-25 22:40:00,61.0,58.7,29.92,SW,229,0.0,0.0,92,0.00,CLR,BKN,0.02,WeatherDisplay:10.37,2013-08-26 05:40:00,
2013-08-25 22:44:00,60.8,58.8,29.92,SW,229,0.0,1.2,93,0.00,CLR,BKN,0.02,WeatherDisplay:10.37,2013-08-26 05:44:00,
2013-08-25 22:45:00,60.8,58.8,29.92,SW,229,0.0,1.2,93,0.00,CLR,BKN,0.02,WeatherDisplay:10.37,2013-08-26 05:45:00,
2013-08-25 22:46:00,60.7,58.7,29.92,SW,229,0.0,0.0,93,0.00,CLR,BKN,0.02,WeatherDisplay:10.37,2013-08-26 05:46:00,
2013-08-25 22:50:00,60.6,58.6,29.92,SW,229,0.0,0.0,93,0.00,CLR,BKN,0.02,WeatherDisplay:10.37,2013-08-26 05:50:00,
2013-08-25 22:51:00,60.5,58.5,29.92,SW,229,0.0,0.0,93,0.00,CLR,BKN,0.02,WeatherDisplay:10.37,2013-08-26 05:51:00,
2013-08-25 22:55:00,60.5,58.8,29.92,SW,229,0.0,0.0,94,0.00,CLR,BKN,0.02,WeatherDisplay:10.37,2013-08-26 05:55:00,
2013-08-25 22:56:00,60.4,58.7,29.92,SW,229,0.0,0.0,94,0.00,CLR,BKN,0.02,WeatherDisplay:10.37,2013-08-26 05:56:00,
2013-08-25 22:57:00,60.4,58.7,29.92,SW,229,0.0,0.0,94,0.00,CLR,BKN,0.02,WeatherDisplay:10.37,2013-08-26 05:57:00,
2013-08-25 23:00:00,60.3,58.6,29.92,SW,229,0.0,1.2,94,0.00,CLR,BKN,0.02,WeatherDisplay:10.37,2013-08-26 06:00:00,
2013-08-25 23:01:00,60.3,58.6,29.92,SW,229,0.0,0.0,94,0.00,CLR,BKN,0.02,WeatherDisplay:10.37,2013-08-26 06:01:00,
2013-08-25 23:02:00,60.3,58.6,29.92,SW,229,0.0,0.0,94,0.00,CLR,BKN,0.02,WeatherDisplay:10.37,2013-08-26 06:02:00,
2013-08-25 23:05:00,60.3,58.9,29.92,SW,229,0.0,0.0,95,0.00,CLR,BKN,0.02,WeatherDisplay:10.37,2013-08-26 06:05:00,
2013-08-25 23:06:00,60.2,58.8,29.92,SW,229,0.0,0.0,95,0.00,CLR,BKN,0.03,WeatherDisplay:10.37,2013-08-26 06:06:00,
2013-08-25 23:07:00,60.2,58.8,29.92,SW,229,0.0,0.0,95,0.01,RA,BKN,0.03,WeatherDisplay:10.37,2013-08-26 06:07:00,
2013-08-25 23:10:00,60.1,58.7,29.92,SW,229,0.2,0.0,95,0.01,RA,BKN,0.03,WeatherDisplay:10.37,2013-08-26 06:10:00,
2013-08-25 23:11:00,60.1,58.4,29.92,SW,229,0.0,1.2,94,0.01,RA,BKN,0.03,WeatherDisplay:10.37,2013-08-26 06:11:00,
2013-08-25 23:12:00,60.1,58.4,29.92,SW,229,0.0,0.0,94,0.01,RA,BKN,0.03,WeatherDisplay:10.37,2013-08-26 06:12:00,
2013-08-25 23:13:00,60.1,58.4,29.92,SW,229,0.0,0.0,94,0.01,RA,BKN,0.03,WeatherDisplay:10.37,2013-08-26 06:13:00,
2013-08-25 23:16:00,60.0,58.3,29.92,SW,229,0.0,1.2,94,0.01,RA,BKN,0.03,WeatherDisplay:10.37,2013-08-26 06:16:00,
2013-08-25 23:17:00,59.9,58.2,29.92,SW,229,0.0,0.0,94,0.01,,BKN,0.03,WeatherDisplay:10.37,2013-08-26 06:17:00,
2013-08-25 23:18:00,59.9,58.2,29.92,SW,229,0.0,0.0,94,0.01,,BKN,0.03,WeatherDisplay:10.37,2013-08-26 06:18:00,
2013-08-25 23:21:00,59.9,58.2,29.92,SW,229,0.0,0.0,94,0.01,CLR,BKN,0.03,WeatherDisplay:10.37,2013-08-26 06:21:00,
2013-08-25 23:23:00,59.9,58.5,29.92,SW,229,0.0,0.0,95,0.01,CLR,BKN,0.03,WeatherDisplay:10.37,2013-08-26 06:23:00,
2013-08-25 23:26:00,59.8,58.4,29.92,SW,229,0.0,0.0,95,0.01,CLR,BKN,0.03,WeatherDisplay:10.37,2013-08-26 06:26:00,
2013-08-25 23:28:00,59.8,58.4,29.92,SW,229,0.0,0.0,95,0.01,CLR,BKN,0.03,WeatherDisplay:10.37,2013-08-26 06:28:00,
2013-08-25 23:29:00,59.8,58.4,29.92,SW,229,0.0,0.0,95,0.01,CLR,BKN,0.03,WeatherDisplay:10.37,2013-08-26 06:29:00,
2013-08-25 23:31:00,59.7,58.3,29.92,SW,229,0.0,0.0,95,0.01,CLR,BKN,0.03,WeatherDisplay:10.37,2013-08-26 06:31:00,
2013-08-25 23:32:00,59.7,58.3,29.92,SW,229,0.0,0.0,95,0.01,CLR,BKN,0.03,WeatherDisplay:10.37,2013-08-26 06:32:00,
2013-08-25 23:33:00,59.7,58.3,29.92,SW,229,0.0,0.0,95,0.01,CLR,BKN,0.03,WeatherDisplay:10.37,2013-08-26 06:33:00,
2013-08-25 23:34:00,59.6,58.2,29.92,SW,229,0.0,0.0,95,0.01,CLR,BKN,0.03,WeatherDisplay:10.37,2013-08-26 06:34:00,
2013-08-25 23:37:00,59.6,58.2,29.92,SW,229,0.0,1.2,95,0.01,CLR,BKN,0.03,WeatherDisplay:10.37,2013-08-26 06:37:00,
2013-08-25 23:38:00,59.6,58.2,29.92,SW,229,0.1,0.0,95,0.01,CLR,BKN,0.03,WeatherDisplay:10.37,2013-08-26 06:38:00,
2013-08-25 23:39:00,59.6,58.2,29.92,SW,229,0.3,2.0,95,0.01,CLR,BKN,0.03,WeatherDisplay:10.37,2013-08-26 06:39:00,
2013-08-25 23:42:00,59.6,58.2,29.92,SW,229,1.6,2.3,95,0.01,CLR,BKN,0.03,WeatherDisplay:10.37,2013-08-26 06:42:00,
2013-08-25 23:43:00,59.6,58.2,29.92,SW,229,0.2,2.3,95,0.01,CLR,BKN,0.03,WeatherDisplay:10.37,2013-08-26 06:43:00,
2013-08-25 23:44:00,59.7,58.3,29.92,SW,229,0.0,1.2,95,0.01,CLR,BKN,0.03,WeatherDisplay:10.37,2013-08-26 06:44:00,
2013-08-25 23:45:00,59.7,58.3,29.92,SW,229,0.0,0.0,95,0.01,CLR,BKN,0.03,WeatherDisplay:10.37,2013-08-26 06:45:00,
2013-08-25 23:47:00,59.7,58.3,29.92,SW,229,0.0,0.0,95,0.01,CLR,BKN,0.03,WeatherDisplay:10.37,2013-08-26 06:47:00,
2013-08-25 23:48:00,59.7,58.3,29.92,SW,229,0.0,0.0,95,0.01,CLR,BKN,0.03,WeatherDisplay:10.37,2013-08-26 06:48:00,
2013-08-25 23:49:00,59.7,58.3,29.92,SW,229,0.0,1.0,95,0.01,CLR,BKN,0.03,WeatherDisplay:10.37,2013-08-26 06:49:00,
2013-08-25 23:50:00,59.8,58.4,29.92,SW,229,0.0,1.2,95,0.01,CLR,BKN,0.03,WeatherDisplay:10.37,2013-08-26 06:50:00,
2013-08-25 23:52:00,59.8,58.4,29.92,SW,229,0.0,0.0,95,0.01,CLR,BKN,0.03,WeatherDisplay:10.37,2013-08-26 06:52:00,
2013-08-25 23:53:00,59.8,58.4,29.92,SW,229,0.1,0.0,95,0.01,CLR,BKN,0.03,WeatherDisplay:10.37,2013-08-26 06:53:00,
2013-08-25 23:54:00,59.8,58.4,29.92,SW,229,0.0,1.2,95,0.01,CLR,BKN,0.03,WeatherDisplay:10.37,2013-08-26 06:54:00,
2013-08-25 23:55:00,59.8,58.1,29.92,SW,229,2.0,3.5,94,0.01,CLR,BKN,0.03,WeatherDisplay:10.37,2013-08-26 06:55:00,
2013-08-25 23:57:00,59.8,58.1,29.92,SW,229,1.2,2.3,94,0.01,CLR,BKN,0.03,WeatherDisplay:10.37,2013-08-26 06:57:00,
2013-08-25 23:58:00,59.9,58.2,29.92,SW,229,1.1,2.3,94,0.01,CLR,BKN,0.03,WeatherDisplay:10.37,2013-08-26 06:58:00,
2013-08-25 23:59:00,59.9,58.2,29.92,SW,229,0.1,2.3,94,0.01,CLR,BKN,0.03,WeatherDisplay:10.37,2013-08-26 06:59:00,